<?xml version="1.0" encoding="UTF-8" standalone="no" ?>
<gpx xmlns="http://www.topografix.com/GPX/1/1" xmlns:xsi="http://www.w3.org/2001/XMLSchema-instance" xsi:schemaLocation="http://www.topografix.com/GPX/1/1 http://www.topografix.com/GPX/1/1/gpx.xsd" version="1.1" creator="VisuGPX - https://www.visugpx.com">
  <metadata>
    <name>Vallée de Chevreuse</name>
  </metadata>
  <wpt lat="48.70316" lon="2.07088">
    <ele>79.5</ele>
    <type><![CDATA[GENERIC]]></type>
  </wpt>
  <wpt lat="48.7032" lon="2.07089">
    <ele>78.9</ele>
    <type><![CDATA[GENERIC]]></type>
  </wpt>
  <trk>
    <name><![CDATA[Vallée de Chevreuse 1/3]]></name>
    <extensions>
      <line xmlns="http://www.topografix.com/GPX/gpx_style/0/2">
        <color>0000FF</color>
        <width>4</width>
        <dasharray>8</dasharray>
          <extensions>
            <sens>1</sens>
          </extensions>
      </line>
    </extensions>
    <trkseg>
      <trkpt lat="48.7032" lon="2.07089">
        <ele>79</ele>
        <time>2025-03-15T13:54:30.000Z</time>
      </trkpt>
      <trkpt lat="48.70307" lon="2.06958">
        <ele>78</ele>
        <time>2025-03-15T13:56:10.000Z</time>
      </trkpt>
      <trkpt lat="48.7032" lon="2.06957">
        <ele>77</ele>
        <time>2025-03-15T13:56:24.000Z</time>
      </trkpt>
      <trkpt lat="48.7032" lon="2.0693">
        <ele>76</ele>
        <time>2025-03-15T13:56:44.000Z</time>
      </trkpt>
      <trkpt lat="48.70274" lon="2.06824">
        <ele>76</ele>
        <time>2025-03-15T13:58:19.000Z</time>
      </trkpt>
      <trkpt lat="48.70223" lon="2.06545">
        <ele>77</ele>
        <time>2025-03-15T14:00:23.000Z</time>
      </trkpt>
      <trkpt lat="48.70232" lon="2.06298">
        <ele>81</ele>
        <time>2025-03-15T14:04:11.000Z</time>
      </trkpt>
      <trkpt lat="48.70254" lon="2.06179">
        <ele>80</ele>
        <time>2025-03-15T14:06:16.000Z</time>
      </trkpt>
      <trkpt lat="48.70268" lon="2.05768">
        <ele>81</ele>
        <time>2025-03-15T14:11:21.000Z</time>
      </trkpt>
      <trkpt lat="48.7023" lon="2.05585">
        <ele>81</ele>
        <time>2025-03-15T14:13:46.000Z</time>
      </trkpt>
      <trkpt lat="48.70237" lon="2.05541">
        <ele>80</ele>
        <time>2025-03-15T14:14:20.000Z</time>
      </trkpt>
      <trkpt lat="48.70221" lon="2.05499">
        <ele>81</ele>
        <time>2025-03-15T14:15:07.000Z</time>
      </trkpt>
      <trkpt lat="48.70206" lon="2.05304">
        <ele>86</ele>
        <time>2025-03-15T14:17:47.000Z</time>
      </trkpt>
      <trkpt lat="48.70229" lon="2.05292">
        <ele>86</ele>
        <time>2025-03-15T14:18:15.000Z</time>
      </trkpt>
      <trkpt lat="48.70302" lon="2.0514">
        <ele>87</ele>
        <time>2025-03-15T14:20:47.000Z</time>
      </trkpt>
      <trkpt lat="48.70373" lon="2.04938">
        <ele>85</ele>
        <time>2025-03-15T14:23:36.000Z</time>
      </trkpt>
      <trkpt lat="48.70415" lon="2.04844">
        <ele>84</ele>
        <time>2025-03-15T14:25:01.000Z</time>
      </trkpt>
      <trkpt lat="48.70432" lon="2.04772">
        <ele>82</ele>
        <time>2025-03-15T14:25:59.000Z</time>
      </trkpt>
      <trkpt lat="48.70513" lon="2.04703">
        <ele>78</ele>
        <time>2025-03-15T14:27:00.000Z</time>
      </trkpt>
      <trkpt lat="48.70562" lon="2.04659">
        <ele>77</ele>
        <time>2025-03-15T14:28:05.000Z</time>
      </trkpt>
      <trkpt lat="48.70607" lon="2.04564">
        <ele>77</ele>
        <time>2025-03-15T14:29:33.000Z</time>
      </trkpt>
      <trkpt lat="48.70663" lon="2.04567">
        <ele>79</ele>
        <time>2025-03-15T14:30:49.000Z</time>
      </trkpt>
      <trkpt lat="48.70665" lon="2.04449">
        <ele>78</ele>
        <time>2025-03-15T14:32:18.000Z</time>
      </trkpt>
      <trkpt lat="48.70673" lon="2.04375">
        <ele>78</ele>
        <time>2025-03-15T14:33:15.000Z</time>
      </trkpt>
      <trkpt lat="48.70677" lon="2.04207">
        <ele>78</ele>
        <time>2025-03-15T14:35:22.000Z</time>
      </trkpt>
      <trkpt lat="48.70664" lon="2.03984">
        <ele>78</ele>
        <time>2025-03-15T14:38:14.000Z</time>
      </trkpt>
      <trkpt lat="48.7071" lon="2.03961">
        <ele>81</ele>
        <time>2025-03-15T14:39:40.000Z</time>
      </trkpt>
      <trkpt lat="48.70746" lon="2.03929">
        <ele>83</ele>
        <time>2025-03-15T14:40:50.000Z</time>
      </trkpt>
      <trkpt lat="48.70757" lon="2.03976">
        <ele>84</ele>
        <time>2025-03-15T14:41:38.000Z</time>
      </trkpt>
      <trkpt lat="48.7079" lon="2.04027">
        <ele>87</ele>
        <time>2025-03-15T14:43:03.000Z</time>
      </trkpt>
      <trkpt lat="48.70836" lon="2.04072">
        <ele>92</ele>
        <time>2025-03-15T14:44:41.000Z</time>
      </trkpt>
      <trkpt lat="48.70829" lon="2.04098">
        <ele>92</ele>
        <time>2025-03-15T14:45:03.000Z</time>
      </trkpt>
      <trkpt lat="48.70869" lon="2.04129">
        <ele>102</ele>
        <time>2025-03-15T14:47:37.000Z</time>
      </trkpt>
      <trkpt lat="48.70892" lon="2.04078">
        <ele>105</ele>
        <time>2025-03-15T14:48:30.000Z</time>
      </trkpt>
      <trkpt lat="48.70905" lon="2.04092">
        <ele>107</ele>
        <time>2025-03-15T14:49:09.000Z</time>
      </trkpt>
      <trkpt lat="48.7091" lon="2.04151">
        <ele>116</ele>
        <time>2025-03-15T14:51:27.000Z</time>
      </trkpt>
      <trkpt lat="48.7093" lon="2.04186">
        <ele>125</ele>
        <time>2025-03-15T14:50:58.000Z</time>
      </trkpt>
      <trkpt lat="48.70946" lon="2.0416">
        <ele>131</ele>
        <time>2025-03-15T14:53:28.000Z</time>
      </trkpt>
      <trkpt lat="48.7095" lon="2.04225">
        <ele>136</ele>
        <time>2025-03-15T14:55:09.000Z</time>
      </trkpt>
      <trkpt lat="48.70969" lon="2.04168">
        <ele>142</ele>
        <time>2025-03-15T14:56:59.000Z</time>
      </trkpt>
      <trkpt lat="48.71011" lon="2.04151">
        <ele>152</ele>
        <time>2025-03-15T15:00:00.000Z</time>
      </trkpt>
      <trkpt lat="48.71051" lon="2.04113">
        <ele>150</ele>
        <time>2025-03-15T15:00:52.000Z</time>
      </trkpt>
      <trkpt lat="48.71082" lon="2.04137">
        <ele>154</ele>
        <time>2025-03-15T15:02:52.000Z</time>
      </trkpt>
      <trkpt lat="48.71129" lon="2.04147">
        <ele>156</ele>
        <time>2025-03-15T15:06:26.000Z</time>
      </trkpt>
      <trkpt lat="48.7115" lon="2.04241">
        <ele>157</ele>
        <time>2025-03-15T15:07:51.000Z</time>
      </trkpt>
      <trkpt lat="48.71156" lon="2.04304">
        <ele>158</ele>
        <time>2025-03-15T15:08:50.000Z</time>
      </trkpt>
      <trkpt lat="48.71178" lon="2.04351">
        <ele>160</ele>
        <time>2025-03-15T15:10:12.000Z</time>
      </trkpt>
      <trkpt lat="48.71224" lon="2.04221">
        <ele>161</ele>
        <time>2025-03-15T15:12:13.000Z</time>
      </trkpt>
      <trkpt lat="48.7127" lon="2.04172">
        <ele>162</ele>
        <time>2025-03-15T15:13:29.000Z</time>
      </trkpt>
      <trkpt lat="48.71323" lon="2.04141">
        <ele>163</ele>
        <time>2025-03-15T15:14:44.000Z</time>
      </trkpt>
      <trkpt lat="48.71391" lon="2.04">
        <ele>163</ele>
        <time>2025-03-15T15:16:45.000Z</time>
      </trkpt>
      <trkpt lat="48.71425" lon="2.04007">
        <ele>164</ele>
        <time>2025-03-15T15:17:34.000Z</time>
      </trkpt>
      <trkpt lat="48.7161" lon="2.03926">
        <ele>168</ele>
        <time>2025-03-15T15:21:16.000Z</time>
      </trkpt>
      <trkpt lat="48.71829" lon="2.03933">
        <ele>169</ele>
        <time>2025-03-15T15:25:49.000Z</time>
      </trkpt>
      <trkpt lat="48.71838" lon="2.0385">
        <ele>169</ele>
        <time>2025-03-15T15:26:52.000Z</time>
      </trkpt>
      <trkpt lat="48.72193" lon="2.03988">
        <ele>162</ele>
        <time>2025-03-15T15:34:29.000Z</time>
      </trkpt>
      <trkpt lat="48.72222" lon="2.04039">
        <ele>161</ele>
        <time>2025-03-15T15:35:20.000Z</time>
      </trkpt>
      <trkpt lat="48.72309" lon="2.03942">
        <ele>159</ele>
        <time>2025-03-15T15:35:54.000Z</time>
      </trkpt>
      <trkpt lat="48.72349" lon="2.03812">
        <ele>159</ele>
        <time>2025-03-15T15:38:21.000Z</time>
      </trkpt>
      <trkpt lat="48.72414" lon="2.03848">
        <ele>158</ele>
        <time>2025-03-15T15:39:40.000Z</time>
      </trkpt>
      <trkpt lat="48.72428" lon="2.03809">
        <ele>156</ele>
        <time>2025-03-15T15:40:14.000Z</time>
      </trkpt>
      <trkpt lat="48.72459" lon="2.03798">
        <ele>151</ele>
        <time>2025-03-15T15:40:50.000Z</time>
      </trkpt>
      <trkpt lat="48.72478" lon="2.03819">
        <ele>149</ele>
        <time>2025-03-15T15:41:17.000Z</time>
      </trkpt>
      <trkpt lat="48.7251" lon="2.03792">
        <ele>139</ele>
        <time>2025-03-15T15:41:17.000Z</time>
      </trkpt>
      <trkpt lat="48.7254" lon="2.03799">
        <ele>129</ele>
        <time>2025-03-15T15:41:51.000Z</time>
      </trkpt>
      <trkpt lat="48.72584" lon="2.03795">
        <ele>119</ele>
        <time>2025-03-15T15:42:42.000Z</time>
      </trkpt>
      <trkpt lat="48.7265" lon="2.03889">
        <ele>108</ele>
        <time>2025-03-15T15:43:56.000Z</time>
      </trkpt>
      <trkpt lat="48.72693" lon="2.03957">
        <ele>98</ele>
        <time>2025-03-15T15:45:34.000Z</time>
      </trkpt>
      <trkpt lat="48.72671" lon="2.04097">
        <ele>96</ele>
        <time>2025-03-15T15:46:59.000Z</time>
      </trkpt>
      <trkpt lat="48.72879" lon="2.0426">
        <ele>104</ele>
        <time>2025-03-15T15:53:13.000Z</time>
      </trkpt>
      <trkpt lat="48.72867" lon="2.04023">
        <ele>98</ele>
        <time>2025-03-15T15:57:03.000Z</time>
      </trkpt>
      <trkpt lat="48.72936" lon="2.03822">
        <ele>101</ele>
        <time>2025-03-15T15:59:36.000Z</time>
      </trkpt>
      <trkpt lat="48.72949" lon="2.03637">
        <ele>100</ele>
        <time>2025-03-15T16:01:48.000Z</time>
      </trkpt>
      <trkpt lat="48.72917" lon="2.03557">
        <ele>97</ele>
        <time>2025-03-15T16:03:35.000Z</time>
      </trkpt>
      <trkpt lat="48.72962" lon="2.03329">
        <ele>101</ele>
        <time>2025-03-15T16:06:54.000Z</time>
      </trkpt>
      <trkpt lat="48.72916" lon="2.03225">
        <ele>99</ele>
        <time>2025-03-15T16:08:25.000Z</time>
      </trkpt>
      <trkpt lat="48.72929" lon="2.02876">
        <ele>100</ele>
        <time>2025-03-15T16:13:21.000Z</time>
      </trkpt>
      <trkpt lat="48.72947" lon="2.02832">
        <ele>101</ele>
        <time>2025-03-15T16:14:11.000Z</time>
      </trkpt>
      <trkpt lat="48.73028" lon="2.02771">
        <ele>102</ele>
        <time>2025-03-15T16:16:05.000Z</time>
      </trkpt>
      <trkpt lat="48.73049" lon="2.02721">
        <ele>101</ele>
        <time>2025-03-15T16:16:49.000Z</time>
      </trkpt>
      <trkpt lat="48.73284" lon="2.02466">
        <ele>105</ele>
        <time>2025-03-15T16:23:01.000Z</time>
      </trkpt>
      <trkpt lat="48.73398" lon="2.02377">
        <ele>105</ele>
        <time>2025-03-15T16:25:15.000Z</time>
      </trkpt>
      <trkpt lat="48.73447" lon="2.02294">
        <ele>103</ele>
        <time>2025-03-15T16:26:39.000Z</time>
      </trkpt>
      <trkpt lat="48.7351" lon="2.02296">
        <ele>105</ele>
        <time>2025-03-15T16:27:08.000Z</time>
      </trkpt>
      <trkpt lat="48.73649" lon="2.02287">
        <ele>107</ele>
        <time>2025-03-15T16:30:44.000Z</time>
      </trkpt>
      <trkpt lat="48.73804" lon="2.02252">
        <ele>111</ele>
        <time>2025-03-15T16:34:08.000Z</time>
      </trkpt>
      <trkpt lat="48.7392" lon="2.02258">
        <ele>111</ele>
        <time>2025-03-15T16:36:21.000Z</time>
      </trkpt>
      <trkpt lat="48.73999" lon="2.02293">
        <ele>111</ele>
        <time>2025-03-15T16:37:53.000Z</time>
      </trkpt>
      <trkpt lat="48.74043" lon="2.02261">
        <ele>112</ele>
        <time>2025-03-15T16:38:59.000Z</time>
      </trkpt>
      <trkpt lat="48.7411" lon="2.02088">
        <ele>111</ele>
        <time>2025-03-15T16:41:31.000Z</time>
      </trkpt>
      <trkpt lat="48.74186" lon="2.01957">
        <ele>112</ele>
        <time>2025-03-15T16:43:35.000Z</time>
      </trkpt>
      <trkpt lat="48.74401" lon="2.01832">
        <ele>126</ele>
        <time>2025-03-15T16:50:23.000Z</time>
      </trkpt>
      <trkpt lat="48.74546" lon="2.01732">
        <ele>122</ele>
        <time>2025-03-15T16:53:33.000Z</time>
      </trkpt>
      <trkpt lat="48.74543" lon="2.01676">
        <ele>121</ele>
        <time>2025-03-15T16:54:16.000Z</time>
      </trkpt>
      <trkpt lat="48.74551" lon="2.01608">
        <ele>122</ele>
        <time>2025-03-15T16:55:18.000Z</time>
      </trkpt>
      <trkpt lat="48.74527" lon="2.01491">
        <ele>119</ele>
        <time>2025-03-15T16:56:17.000Z</time>
      </trkpt>
      <trkpt lat="48.74576" lon="2.01366">
        <ele>123</ele>
        <time>2025-03-15T16:58:48.000Z</time>
      </trkpt>
      <trkpt lat="48.74594" lon="2.01226">
        <ele>123</ele>
        <time>2025-03-15T17:00:36.000Z</time>
      </trkpt>
      <trkpt lat="48.74649" lon="2.01116">
        <ele>125</ele>
        <time>2025-03-15T17:01:00.000Z</time>
      </trkpt>
      <trkpt lat="48.74671" lon="2.01005">
        <ele>125</ele>
        <time>2025-03-15T17:03:58.000Z</time>
      </trkpt>
      <trkpt lat="48.74651" lon="2.00824">
        <ele>128</ele>
        <time>2025-03-15T17:08:17.000Z</time>
      </trkpt>
      <trkpt lat="48.74737" lon="2.00644">
        <ele>127</ele>
        <time>2025-03-15T17:11:05.000Z</time>
      </trkpt>
      <trkpt lat="48.74775" lon="2.00462">
        <ele>139</ele>
        <time>2025-03-15T17:13:52.000Z</time>
      </trkpt>
      <trkpt lat="48.7476" lon="2.00248">
        <ele>150</ele>
        <time>2025-03-15T17:17:29.000Z</time>
      </trkpt>
      <trkpt lat="48.74815" lon="2.00199">
        <ele>163</ele>
        <time>2025-03-15T17:20:56.000Z</time>
      </trkpt>
      <trkpt lat="48.74854" lon="2.0011">
        <ele>164</ele>
        <time>2025-03-15T17:22:27.000Z</time>
      </trkpt>
      <trkpt lat="48.74849" lon="1.99966">
        <ele>157</ele>
        <time>2025-03-15T17:24:11.000Z</time>
      </trkpt>
      <trkpt lat="48.74871" lon="1.9983">
        <ele>164</ele>
        <time>2025-03-15T17:27:08.000Z</time>
      </trkpt>
      <trkpt lat="48.74849" lon="1.9967">
        <ele>158</ele>
        <time>2025-03-15T17:28:06.000Z</time>
      </trkpt>
      <trkpt lat="48.74887" lon="1.99555">
        <ele>156</ele>
        <time>2025-03-15T17:29:59.000Z</time>
      </trkpt>
      <trkpt lat="48.7488" lon="1.99511">
        <ele>156</ele>
        <time>2025-03-15T17:30:33.000Z</time>
      </trkpt>
      <trkpt lat="48.7486" lon="1.99475">
        <ele>155</ele>
        <time>2025-03-15T17:31:08.000Z</time>
      </trkpt>
      <trkpt lat="48.74859" lon="1.99432">
        <ele>157</ele>
        <time>2025-03-15T17:32:01.000Z</time>
      </trkpt>
      <trkpt lat="48.749" lon="1.99382">
        <ele>162</ele>
        <time>2025-03-15T17:33:30.000Z</time>
      </trkpt>
      <trkpt lat="48.74859" lon="1.99268">
        <ele>157</ele>
        <time>2025-03-15T17:35:26.000Z</time>
      </trkpt>
      <trkpt lat="48.74789" lon="1.99255">
        <ele>144</ele>
        <time>2025-03-15T17:36:47.000Z</time>
      </trkpt>
      <trkpt lat="48.74785" lon="1.99197">
        <ele>145</ele>
        <time>2025-03-15T17:37:41.000Z</time>
      </trkpt>
      <trkpt lat="48.74738" lon="1.99145">
        <ele>147</ele>
        <time>2025-03-15T17:37:46.000Z</time>
      </trkpt>
      <trkpt lat="48.74668" lon="1.9914">
        <ele>158</ele>
        <time>2025-03-15T17:40:59.000Z</time>
      </trkpt>
      <trkpt lat="48.74527" lon="1.992">
        <ele>163</ele>
        <time>2025-03-15T17:44:12.000Z</time>
      </trkpt>
      <trkpt lat="48.74562" lon="1.99072">
        <ele>161</ele>
        <time>2025-03-15T17:45:57.000Z</time>
      </trkpt>
      <trkpt lat="48.74617" lon="1.9894">
        <ele>157</ele>
        <time>2025-03-15T17:47:55.000Z</time>
      </trkpt>
      <trkpt lat="48.74637" lon="1.98819">
        <ele>156</ele>
        <time>2025-03-15T17:49:20.000Z</time>
      </trkpt>
      <trkpt lat="48.74591" lon="1.98443">
        <ele>157</ele>
        <time>2025-03-15T17:54:19.000Z</time>
      </trkpt>
      <trkpt lat="48.74479" lon="1.98169">
        <ele>160</ele>
        <time>2025-03-15T17:59:15.000Z</time>
      </trkpt>
      <trkpt lat="48.74341" lon="1.97976">
        <ele>162</ele>
        <time>2025-03-15T18:03:11.000Z</time>
      </trkpt>
      <trkpt lat="48.74206" lon="1.9782">
        <ele>163</ele>
        <time>2025-03-15T18:06:36.000Z</time>
      </trkpt>
      <trkpt lat="48.73975" lon="1.97429">
        <ele>166</ele>
        <time>2025-03-15T18:13:08.000Z</time>
      </trkpt>
      <trkpt lat="48.74053" lon="1.97227">
        <ele>167</ele>
        <time>2025-03-15T18:16:39.000Z</time>
      </trkpt>
      <trkpt lat="48.7406" lon="1.97146">
        <ele>168</ele>
        <time>2025-03-15T18:17:51.000Z</time>
      </trkpt>
      <trkpt lat="48.74026" lon="1.96894">
        <ele>169</ele>
        <time>2025-03-15T18:21:03.000Z</time>
      </trkpt>
      <trkpt lat="48.7402" lon="1.96862">
        <ele>168</ele>
        <time>2025-03-15T18:21:28.000Z</time>
      </trkpt>
      <trkpt lat="48.73816" lon="1.96545">
        <ele>171</ele>
        <time>2025-03-15T18:27:33.000Z</time>
      </trkpt>
      <trkpt lat="48.73718" lon="1.96462">
        <ele>172</ele>
        <time>2025-03-15T18:29:28.000Z</time>
      </trkpt>
      <trkpt lat="48.7386" lon="1.9604">
        <ele>174</ele>
        <time>2025-03-15T18:35:46.000Z</time>
      </trkpt>
      <trkpt lat="48.73967" lon="1.96155">
        <ele>173</ele>
        <time>2025-03-15T18:35:35.000Z</time>
      </trkpt>
      <trkpt lat="48.73703" lon="1.95831">
        <ele>175</ele>
        <time>2025-03-15T18:42:24.000Z</time>
      </trkpt>
      <trkpt lat="48.73519" lon="1.95688">
        <ele>173</ele>
        <time>2025-03-15T18:46:21.000Z</time>
      </trkpt>
      <trkpt lat="48.73368" lon="1.95532">
        <ele>172</ele>
        <time>2025-03-15T18:49:50.000Z</time>
      </trkpt>
      <trkpt lat="48.7334" lon="1.9544">
        <ele>168</ele>
        <time>2025-03-15T18:48:07.000Z</time>
      </trkpt>
      <trkpt lat="48.73405" lon="1.95339">
        <ele>165</ele>
        <time>2025-03-15T18:49:53.000Z</time>
      </trkpt>
      <trkpt lat="48.73474" lon="1.95322">
        <ele>165</ele>
        <time>2025-03-15T18:50:54.000Z</time>
      </trkpt>
      <trkpt lat="48.73374" lon="1.95275">
        <ele>148</ele>
        <time>2025-03-15T18:52:54.000Z</time>
      </trkpt>
      <trkpt lat="48.73311" lon="1.95274">
        <ele>137</ele>
        <time>2025-03-15T18:54:06.000Z</time>
      </trkpt>
      <trkpt lat="48.73253" lon="1.95207">
        <ele>122</ele>
        <time>2025-03-15T18:54:49.000Z</time>
      </trkpt>
      <trkpt lat="48.73208" lon="1.95122">
        <ele>118</ele>
        <time>2025-03-15T18:56:39.000Z</time>
      </trkpt>
      <trkpt lat="48.73089" lon="1.95111">
        <ele>119</ele>
        <time>2025-03-15T18:59:25.000Z</time>
      </trkpt>
      <trkpt lat="48.72992" lon="1.94953">
        <ele>121</ele>
        <time>2025-03-15T19:02:01.000Z</time>
      </trkpt>
      <trkpt lat="48.72966" lon="1.94921">
        <ele>122</ele>
        <time>2025-03-15T19:02:50.000Z</time>
      </trkpt>
      <trkpt lat="48.72921" lon="1.95014">
        <ele>123</ele>
        <time>2025-03-15T19:04:27.000Z</time>
      </trkpt>
      <trkpt lat="48.72818" lon="1.95126">
        <ele>117</ele>
        <time>2025-03-15T19:06:52.000Z</time>
      </trkpt>
      <trkpt lat="48.72644" lon="1.95247">
        <ele>115</ele>
        <time>2025-03-15T19:10:31.000Z</time>
      </trkpt>
      <trkpt lat="48.7259" lon="1.95255">
        <ele>114</ele>
        <time>2025-03-15T19:11:34.000Z</time>
      </trkpt>
      <trkpt lat="48.72345" lon="1.95459">
        <ele>113</ele>
        <time>2025-03-15T19:16:24.000Z</time>
      </trkpt>
      <trkpt lat="48.72399" lon="1.95611">
        <ele>111</ele>
        <time>2025-03-15T19:18:02.000Z</time>
      </trkpt>
      <trkpt lat="48.72374" lon="1.9564">
        <ele>110</ele>
        <time>2025-03-15T19:18:38.000Z</time>
      </trkpt>
      <trkpt lat="48.72444" lon="1.95687">
        <ele>119</ele>
        <time>2025-03-15T19:21:33.000Z</time>
      </trkpt>
      <trkpt lat="48.72441" lon="1.95742">
        <ele>123</ele>
        <time>2025-03-15T19:22:56.000Z</time>
      </trkpt>
      <trkpt lat="48.72426" lon="1.95795">
        <ele>128</ele>
        <time>2025-03-15T19:24:31.000Z</time>
      </trkpt>
      <trkpt lat="48.72427" lon="1.9588">
        <ele>130</ele>
        <time>2025-03-15T19:25:36.000Z</time>
      </trkpt>
      <trkpt lat="48.72452" lon="1.95974">
        <ele>133</ele>
        <time>2025-03-15T19:27:24.000Z</time>
      </trkpt>
      <trkpt lat="48.72454" lon="1.96075">
        <ele>138</ele>
        <time>2025-03-15T19:29:32.000Z</time>
      </trkpt>
      <trkpt lat="48.72472" lon="1.96199">
        <ele>148</ele>
        <time>2025-03-15T19:32:50.000Z</time>
      </trkpt>
      <trkpt lat="48.72492" lon="1.96233">
        <ele>154</ele>
        <time>2025-03-15T19:34:26.000Z</time>
      </trkpt>
      <trkpt lat="48.72495" lon="1.96276">
        <ele>159</ele>
        <time>2025-03-15T19:35:55.000Z</time>
      </trkpt>
      <trkpt lat="48.7242" lon="1.96275">
        <ele>159</ele>
        <time>2025-03-15T19:37:21.000Z</time>
      </trkpt>
      <trkpt lat="48.72257" lon="1.96172">
        <ele>157</ele>
        <time>2025-03-15T19:40:00.000Z</time>
      </trkpt>
      <trkpt lat="48.72175" lon="1.96194">
        <ele>157</ele>
        <time>2025-03-15T19:41:35.000Z</time>
      </trkpt>
      <trkpt lat="48.72122" lon="1.96227">
        <ele>151</ele>
        <time>2025-03-15T19:43:16.000Z</time>
      </trkpt>
      <trkpt lat="48.72087" lon="1.96169">
        <ele>146</ele>
        <time>2025-03-15T19:44:15.000Z</time>
      </trkpt>
      <trkpt lat="48.72089" lon="1.96135">
        <ele>144</ele>
        <time>2025-03-15T19:45:00.000Z</time>
      </trkpt>
      <trkpt lat="48.72043" lon="1.96089">
        <ele>124</ele>
        <time>2025-03-15T19:46:03.000Z</time>
      </trkpt>
      <trkpt lat="48.72024" lon="1.96103">
        <ele>121</ele>
        <time>2025-03-15T19:46:27.000Z</time>
      </trkpt>
      <trkpt lat="48.71983" lon="1.96076">
        <ele>112</ele>
        <time>2025-03-15T19:47:18.000Z</time>
      </trkpt>
      <trkpt lat="48.71973" lon="1.96046">
        <ele>108</ele>
        <time>2025-03-15T19:46:57.000Z</time>
      </trkpt>
      <trkpt lat="48.71951" lon="1.96162">
        <ele>106</ele>
        <time>2025-03-15T19:48:27.000Z</time>
      </trkpt>
      <trkpt lat="48.71932" lon="1.96094">
        <ele>104</ele>
        <time>2025-03-15T19:49:23.000Z</time>
      </trkpt>
      <trkpt lat="48.71899" lon="1.9609">
        <ele>103</ele>
        <time>2025-03-15T19:49:43.000Z</time>
      </trkpt>
      <trkpt lat="48.71882" lon="1.96137">
        <ele>102</ele>
        <time>2025-03-15T19:50:24.000Z</time>
      </trkpt>
      <trkpt lat="48.71889" lon="1.96165">
        <ele>103</ele>
        <time>2025-03-15T19:50:57.000Z</time>
      </trkpt>
      <trkpt lat="48.71851" lon="1.96221">
        <ele>103</ele>
        <time>2025-03-15T19:51:57.000Z</time>
      </trkpt>
      <trkpt lat="48.71843" lon="1.96271">
        <ele>103</ele>
        <time>2025-03-15T19:52:36.000Z</time>
      </trkpt>
      <trkpt lat="48.71849" lon="1.9631">
        <ele>103</ele>
        <time>2025-03-15T19:52:52.000Z</time>
      </trkpt>
      <trkpt lat="48.71826" lon="1.96328">
        <ele>103</ele>
        <time>2025-03-15T19:53:22.000Z</time>
      </trkpt>
      <trkpt lat="48.71812" lon="1.96349">
        <ele>103</ele>
        <time>2025-03-15T19:53:45.000Z</time>
      </trkpt>
      <trkpt lat="48.71779" lon="1.96463">
        <ele>103</ele>
        <time>2025-03-15T19:55:18.000Z</time>
      </trkpt>
      <trkpt lat="48.71704" lon="1.96631">
        <ele>103</ele>
        <time>2025-03-15T19:57:52.000Z</time>
      </trkpt>
      <trkpt lat="48.71662" lon="1.9674">
        <ele>104</ele>
        <time>2025-03-15T19:59:37.000Z</time>
      </trkpt>
      <trkpt lat="48.71655" lon="1.96772">
        <ele>104</ele>
        <time>2025-03-15T20:00:03.000Z</time>
      </trkpt>
      <trkpt lat="48.71613" lon="1.96813">
        <ele>104</ele>
        <time>2025-03-15T20:00:42.000Z</time>
      </trkpt>
      <trkpt lat="48.7161" lon="1.96863">
        <ele>102</ele>
        <time>2025-03-15T20:01:20.000Z</time>
      </trkpt>
      <trkpt lat="48.7166" lon="1.9686">
        <ele>103</ele>
        <time>2025-03-15T20:02:27.000Z</time>
      </trkpt>
      <trkpt lat="48.71751" lon="1.9691">
        <ele>102</ele>
        <time>2025-03-15T20:03:23.000Z</time>
      </trkpt>
      <trkpt lat="48.71755" lon="1.96991">
        <ele>101</ele>
        <time>2025-03-15T20:04:24.000Z</time>
      </trkpt>
      <trkpt lat="48.71729" lon="1.97022">
        <ele>100</ele>
        <time>2025-03-15T20:04:52.000Z</time>
      </trkpt>
      <trkpt lat="48.71741" lon="1.9706">
        <ele>101</ele>
        <time>2025-03-15T20:06:36.000Z</time>
      </trkpt>
      <trkpt lat="48.71739" lon="1.97127">
        <ele>105</ele>
        <time>2025-03-15T20:08:08.000Z</time>
      </trkpt>
      <trkpt lat="48.71686" lon="1.97309">
        <ele>105</ele>
        <time>2025-03-15T20:10:38.000Z</time>
      </trkpt>
      <trkpt lat="48.71685" lon="1.97346">
        <ele>105</ele>
        <time>2025-03-15T20:11:06.000Z</time>
      </trkpt>
      <trkpt lat="48.71663" lon="1.97385">
        <ele>104</ele>
        <time>2025-03-15T20:10:32.000Z</time>
      </trkpt>
      <trkpt lat="48.71662" lon="1.97431">
        <ele>107</ele>
        <time>2025-03-15T20:11:38.000Z</time>
      </trkpt>
      <trkpt lat="48.71614" lon="1.97497">
        <ele>103</ele>
        <time>2025-03-15T20:13:36.000Z</time>
      </trkpt>
      <trkpt lat="48.71595" lon="1.97519">
        <ele>101</ele>
        <time>2025-03-15T20:14:05.000Z</time>
      </trkpt>
      <trkpt lat="48.71533" lon="1.97633">
        <ele>103</ele>
        <time>2025-03-15T20:16:16.000Z</time>
      </trkpt>
      <trkpt lat="48.7151" lon="1.97721">
        <ele>105</ele>
        <time>2025-03-15T20:17:48.000Z</time>
      </trkpt>
      <trkpt lat="48.71484" lon="1.97768">
        <ele>101</ele>
        <time>2025-03-15T20:18:35.000Z</time>
      </trkpt>
      <trkpt lat="48.7146" lon="1.97855">
        <ele>100</ele>
        <time>2025-03-15T20:19:46.000Z</time>
      </trkpt>
      <trkpt lat="48.71462" lon="1.97899">
        <ele>102</ele>
        <time>2025-03-15T20:18:11.000Z</time>
      </trkpt>
      <trkpt lat="48.71435" lon="1.98021">
        <ele>107</ele>
        <time>2025-03-15T20:20:40.000Z</time>
      </trkpt>
      <trkpt lat="48.71438" lon="1.98079">
        <ele>110</ele>
        <time>2025-03-15T20:21:55.000Z</time>
      </trkpt>
      <trkpt lat="48.71429" lon="1.98169">
        <ele>106</ele>
        <time>2025-03-15T20:23:04.000Z</time>
      </trkpt>
      <trkpt lat="48.71391" lon="1.98267">
        <ele>98</ele>
        <time>2025-03-15T20:22:32.000Z</time>
      </trkpt>
      <trkpt lat="48.71361" lon="1.98283">
        <ele>98</ele>
        <time>2025-03-15T20:23:09.000Z</time>
      </trkpt>
      <trkpt lat="48.71306" lon="1.98412">
        <ele>96</ele>
        <time>2025-03-15T20:24:31.000Z</time>
      </trkpt>
      <trkpt lat="48.71301" lon="1.98504">
        <ele>96</ele>
        <time>2025-03-15T20:26:16.000Z</time>
      </trkpt>
      <trkpt lat="48.71267" lon="1.98513">
        <ele>94</ele>
        <time>2025-03-15T20:26:56.000Z</time>
      </trkpt>
      <trkpt lat="48.71182" lon="1.98594">
        <ele>92</ele>
        <time>2025-03-15T20:28:24.000Z</time>
      </trkpt>
      <trkpt lat="48.71133" lon="1.98582">
        <ele>93</ele>
        <time>2025-03-15T20:29:31.000Z</time>
      </trkpt>
      <trkpt lat="48.71035" lon="1.98575">
        <ele>96</ele>
        <time>2025-03-15T20:31:54.000Z</time>
      </trkpt>
      <trkpt lat="48.70974" lon="1.98591">
        <ele>98</ele>
        <time>2025-03-15T20:34:19.000Z</time>
      </trkpt>
      <trkpt lat="48.70927" lon="1.98563">
        <ele>103</ele>
        <time>2025-03-15T20:36:08.000Z</time>
      </trkpt>
      <trkpt lat="48.70875" lon="1.98541">
        <ele>108</ele>
        <time>2025-03-15T20:38:02.000Z</time>
      </trkpt>
      <trkpt lat="48.70832" lon="1.98546">
        <ele>111</ele>
        <time>2025-03-15T20:38:51.000Z</time>
      </trkpt>
      <trkpt lat="48.70787" lon="1.98647">
        <ele>110</ele>
        <time>2025-03-15T20:40:33.000Z</time>
      </trkpt>
      <trkpt lat="48.70735" lon="1.98573">
        <ele>117</ele>
        <time>2025-03-15T20:43:07.000Z</time>
      </trkpt>
      <trkpt lat="48.7066" lon="1.98439">
        <ele>131</ele>
        <time>2025-03-15T20:47:11.000Z</time>
      </trkpt>
      <trkpt lat="48.7067" lon="1.98361">
        <ele>140</ele>
        <time>2025-03-15T20:49:43.000Z</time>
      </trkpt>
      <trkpt lat="48.70651" lon="1.98271">
        <ele>148</ele>
        <time>2025-03-15T20:51:59.000Z</time>
      </trkpt>
      <trkpt lat="48.70631" lon="1.98194">
        <ele>151</ele>
        <time>2025-03-15T20:53:32.000Z</time>
        <extensions>
          <visugpx:TrkExtension xmlns:visugpx="https://www.visugpx.com/editgpx/">
            <visugpx:node>1</visugpx:node>
            </visugpx:TrkExtension>
        </extensions>
      </trkpt>
    </trkseg>
  </trk>
  <trk>
    <name><![CDATA[Vallée de Chevreuse 2/3]]></name>
    <extensions>
      <line xmlns="http://www.topografix.com/GPX/gpx_style/0/2">
        <color>00FF00</color>
        <width>4</width>
        <dasharray>8</dasharray>
          <extensions>
            <sens>1</sens>
          </extensions>
      </line>
    </extensions>
    <trkseg>
      <trkpt lat="48.70631" lon="1.98194">
        <ele>151</ele>
        <time>2025-03-15T20:53:32.000Z</time>
      </trkpt>
      <trkpt lat="48.70617" lon="1.98135">
        <ele>152</ele>
        <time>2025-03-15T20:54:30.000Z</time>
      </trkpt>
      <trkpt lat="48.70614" lon="1.97751">
        <ele>157</ele>
        <time>2025-03-15T21:00:12.000Z</time>
      </trkpt>
      <trkpt lat="48.70565" lon="1.97737">
        <ele>158</ele>
        <time>2025-03-15T21:01:19.000Z</time>
      </trkpt>
      <trkpt lat="48.70538" lon="1.97685">
        <ele>159</ele>
        <time>2025-03-15T21:02:19.000Z</time>
      </trkpt>
      <trkpt lat="48.70502" lon="1.97572">
        <ele>160</ele>
        <time>2025-03-15T21:04:04.000Z</time>
      </trkpt>
      <trkpt lat="48.70485" lon="1.97357">
        <ele>162</ele>
        <time>2025-03-15T21:07:08.000Z</time>
      </trkpt>
      <trkpt lat="48.70477" lon="1.97324">
        <ele>163</ele>
        <time>2025-03-15T21:07:44.000Z</time>
      </trkpt>
      <trkpt lat="48.70481" lon="1.97223">
        <ele>164</ele>
        <time>2025-03-15T21:09:11.000Z</time>
      </trkpt>
      <trkpt lat="48.70398" lon="1.97253">
        <ele>160</ele>
        <time>2025-03-15T21:10:48.000Z</time>
      </trkpt>
      <trkpt lat="48.70376" lon="1.97306">
        <ele>155</ele>
        <time>2025-03-15T21:11:35.000Z</time>
      </trkpt>
      <trkpt lat="48.70341" lon="1.97338">
        <ele>142</ele>
        <time>2025-03-15T21:12:23.000Z</time>
      </trkpt>
      <trkpt lat="48.70327" lon="1.97348">
        <ele>137</ele>
        <time>2025-03-15T21:12:40.000Z</time>
      </trkpt>
      <trkpt lat="48.70319" lon="1.97387">
        <ele>133</ele>
        <time>2025-03-15T21:13:11.000Z</time>
      </trkpt>
      <trkpt lat="48.70292" lon="1.97371">
        <ele>122</ele>
        <time>2025-03-15T21:13:43.000Z</time>
      </trkpt>
      <trkpt lat="48.70269" lon="1.97394">
        <ele>116</ele>
        <time>2025-03-15T21:14:14.000Z</time>
      </trkpt>
      <trkpt lat="48.70219" lon="1.97381">
        <ele>107</ele>
        <time>2025-03-15T21:15:13.000Z</time>
      </trkpt>
      <trkpt lat="48.7019" lon="1.97447">
        <ele>105</ele>
        <time>2025-03-15T21:16:12.000Z</time>
      </trkpt>
      <trkpt lat="48.70162" lon="1.97437">
        <ele>106</ele>
        <time>2025-03-15T21:16:56.000Z</time>
      </trkpt>
      <trkpt lat="48.70083" lon="1.97302">
        <ele>111</ele>
        <time>2025-03-15T21:20:03.000Z</time>
      </trkpt>
      <trkpt lat="48.70031" lon="1.97168">
        <ele>118</ele>
        <time>2025-03-15T21:23:13.000Z</time>
      </trkpt>
      <trkpt lat="48.70002" lon="1.97048">
        <ele>126</ele>
        <time>2025-03-15T21:26:11.000Z</time>
      </trkpt>
      <trkpt lat="48.69987" lon="1.969">
        <ele>132</ele>
        <time>2025-03-15T21:29:06.000Z</time>
      </trkpt>
      <trkpt lat="48.69952" lon="1.96847">
        <ele>137</ele>
        <time>2025-03-15T21:30:54.000Z</time>
      </trkpt>
      <trkpt lat="48.69893" lon="1.96813">
        <ele>144</ele>
        <time>2025-03-15T21:33:18.000Z</time>
      </trkpt>
      <trkpt lat="48.69826" lon="1.96761">
        <ele>154</ele>
        <time>2025-03-15T21:36:27.000Z</time>
      </trkpt>
      <trkpt lat="48.69806" lon="1.96724">
        <ele>159</ele>
        <time>2025-03-15T21:37:55.000Z</time>
      </trkpt>
      <trkpt lat="48.69771" lon="1.96516">
        <ele>169</ele>
        <time>2025-03-15T21:42:20.000Z</time>
      </trkpt>
      <trkpt lat="48.69436" lon="1.95744">
        <ele>169</ele>
        <time>2025-03-15T21:53:58.000Z</time>
      </trkpt>
      <trkpt lat="48.69419" lon="1.95735">
        <ele>169</ele>
        <time>2025-03-15T21:54:18.000Z</time>
      </trkpt>
      <trkpt lat="48.69392" lon="1.95753">
        <ele>169</ele>
        <time>2025-03-15T21:54:51.000Z</time>
      </trkpt>
      <trkpt lat="48.69379" lon="1.95802">
        <ele>169</ele>
        <time>2025-03-15T21:55:31.000Z</time>
      </trkpt>
      <trkpt lat="48.69374" lon="1.95858">
        <ele>167</ele>
        <time>2025-03-15T21:56:14.000Z</time>
      </trkpt>
      <trkpt lat="48.69363" lon="1.95891">
        <ele>168</ele>
        <time>2025-03-15T21:56:52.000Z</time>
      </trkpt>
      <trkpt lat="48.69219" lon="1.95947">
        <ele>169</ele>
        <time>2025-03-15T21:59:52.000Z</time>
      </trkpt>
      <trkpt lat="48.69038" lon="1.96092">
        <ele>171</ele>
        <time>2025-03-15T22:04:07.000Z</time>
      </trkpt>
      <trkpt lat="48.69033" lon="1.9612">
        <ele>169</ele>
        <time>2025-03-15T22:04:29.000Z</time>
      </trkpt>
      <trkpt lat="48.69042" lon="1.96188">
        <ele>164</ele>
        <time>2025-03-15T22:05:22.000Z</time>
      </trkpt>
      <trkpt lat="48.69015" lon="1.96251">
        <ele>155</ele>
        <time>2025-03-15T22:06:19.000Z</time>
      </trkpt>
      <trkpt lat="48.69011" lon="1.96315">
        <ele>150</ele>
        <time>2025-03-15T22:07:08.000Z</time>
      </trkpt>
      <trkpt lat="48.69012" lon="1.96345">
        <ele>148</ele>
        <time>2025-03-15T22:07:31.000Z</time>
      </trkpt>
      <trkpt lat="48.68994" lon="1.96349">
        <ele>144</ele>
        <time>2025-03-15T22:07:52.000Z</time>
      </trkpt>
      <trkpt lat="48.68953" lon="1.96236">
        <ele>135</ele>
        <time>2025-03-15T22:09:30.000Z</time>
      </trkpt>
      <trkpt lat="48.6887" lon="1.96266">
        <ele>129</ele>
        <time>2025-03-15T22:11:08.000Z</time>
      </trkpt>
      <trkpt lat="48.68844" lon="1.96246">
        <ele>133</ele>
        <time>2025-03-15T22:12:23.000Z</time>
      </trkpt>
      <trkpt lat="48.68788" lon="1.96327">
        <ele>131</ele>
        <time>2025-03-15T22:13:51.000Z</time>
      </trkpt>
      <trkpt lat="48.68703" lon="1.96271">
        <ele>140</ele>
        <time>2025-03-15T22:17:10.000Z</time>
      </trkpt>
      <trkpt lat="48.68657" lon="1.96252">
        <ele>147</ele>
        <time>2025-03-15T22:19:16.000Z</time>
      </trkpt>
      <trkpt lat="48.6862" lon="1.96187">
        <ele>161</ele>
        <time>2025-03-15T22:22:45.000Z</time>
      </trkpt>
      <trkpt lat="48.68656" lon="1.96074">
        <ele>172</ele>
        <time>2025-03-15T22:26:13.000Z</time>
      </trkpt>
      <trkpt lat="48.6866" lon="1.95991">
        <ele>171</ele>
        <time>2025-03-15T22:27:15.000Z</time>
      </trkpt>
      <trkpt lat="48.68561" lon="1.95886">
        <ele>167</ele>
        <time>2025-03-15T22:29:33.000Z</time>
      </trkpt>
      <trkpt lat="48.68551" lon="1.95939">
        <ele>166</ele>
        <time>2025-03-15T22:30:15.000Z</time>
      </trkpt>
      <trkpt lat="48.68531" lon="1.95983">
        <ele>163</ele>
        <time>2025-03-15T22:30:55.000Z</time>
      </trkpt>
      <trkpt lat="48.68531" lon="1.96014">
        <ele>163</ele>
        <time>2025-03-15T22:31:19.000Z</time>
      </trkpt>
      <trkpt lat="48.68508" lon="1.96065">
        <ele>158</ele>
        <time>2025-03-15T22:32:05.000Z</time>
      </trkpt>
      <trkpt lat="48.68475" lon="1.961">
        <ele>151</ele>
        <time>2025-03-15T22:32:52.000Z</time>
      </trkpt>
      <trkpt lat="48.68311" lon="1.96153">
        <ele>165</ele>
        <time>2025-03-15T22:38:27.000Z</time>
      </trkpt>
      <trkpt lat="48.68183" lon="1.96231">
        <ele>166</ele>
        <time>2025-03-15T22:41:16.000Z</time>
      </trkpt>
      <trkpt lat="48.68129" lon="1.96267">
        <ele>163</ele>
        <time>2025-03-15T22:42:23.000Z</time>
      </trkpt>
      <trkpt lat="48.67908" lon="1.96309">
        <ele>167</ele>
        <time>2025-03-15T22:47:19.000Z</time>
      </trkpt>
      <trkpt lat="48.67839" lon="1.96272">
        <ele>169</ele>
        <time>2025-03-15T22:49:04.000Z</time>
      </trkpt>
      <trkpt lat="48.678" lon="1.96207">
        <ele>166</ele>
        <time>2025-03-15T22:50:11.000Z</time>
      </trkpt>
      <trkpt lat="48.67778" lon="1.96156">
        <ele>163</ele>
        <time>2025-03-15T22:50:57.000Z</time>
      </trkpt>
      <trkpt lat="48.67816" lon="1.96034">
        <ele>161</ele>
        <time>2025-03-15T22:52:39.000Z</time>
      </trkpt>
      <trkpt lat="48.67884" lon="1.95924">
        <ele>167</ele>
        <time>2025-03-15T22:55:35.000Z</time>
      </trkpt>
      <trkpt lat="48.67969" lon="1.95657">
        <ele>167</ele>
        <time>2025-03-15T22:59:19.000Z</time>
      </trkpt>
      <trkpt lat="48.68041" lon="1.95458">
        <ele>167</ele>
        <time>2025-03-15T23:02:11.000Z</time>
      </trkpt>
      <trkpt lat="48.68049" lon="1.95377">
        <ele>166</ele>
        <time>2025-03-15T23:03:13.000Z</time>
      </trkpt>
      <trkpt lat="48.68134" lon="1.95162">
        <ele>165</ele>
        <time>2025-03-15T23:06:22.000Z</time>
      </trkpt>
      <trkpt lat="48.68131" lon="1.95093">
        <ele>162</ele>
        <time>2025-03-15T23:07:15.000Z</time>
      </trkpt>
      <trkpt lat="48.68184" lon="1.94985">
        <ele>163</ele>
        <time>2025-03-15T23:09:07.000Z</time>
      </trkpt>
      <trkpt lat="48.68231" lon="1.94932">
        <ele>163</ele>
        <time>2025-03-15T23:10:14.000Z</time>
      </trkpt>
      <trkpt lat="48.6831" lon="1.94872">
        <ele>164</ele>
        <time>2025-03-15T23:12:05.000Z</time>
      </trkpt>
      <trkpt lat="48.68508" lon="1.94427">
        <ele>171</ele>
        <time>2025-03-15T23:20:03.000Z</time>
      </trkpt>
      <trkpt lat="48.68737" lon="1.93905">
        <ele>169</ele>
        <time>2025-03-15T23:27:56.000Z</time>
      </trkpt>
      <trkpt lat="48.68711" lon="1.93928">
        <ele>168</ele>
        <time>2025-03-15T23:28:30.000Z</time>
      </trkpt>
      <trkpt lat="48.68675" lon="1.93917">
        <ele>167</ele>
        <time>2025-03-15T23:29:12.000Z</time>
      </trkpt>
      <trkpt lat="48.68638" lon="1.93895">
        <ele>165</ele>
        <time>2025-03-15T23:29:57.000Z</time>
      </trkpt>
      <trkpt lat="48.68622" lon="1.93905">
        <ele>166</ele>
        <time>2025-03-15T23:30:27.000Z</time>
      </trkpt>
      <trkpt lat="48.68562" lon="1.93937">
        <ele>162</ele>
        <time>2025-03-15T23:31:41.000Z</time>
      </trkpt>
      <trkpt lat="48.68535" lon="1.93979">
        <ele>162</ele>
        <time>2025-03-15T23:32:25.000Z</time>
      </trkpt>
      <trkpt lat="48.68488" lon="1.94025">
        <ele>161</ele>
        <time>2025-03-15T23:33:28.000Z</time>
      </trkpt>
      <trkpt lat="48.68471" lon="1.93988">
        <ele>153</ele>
        <time>2025-03-15T23:34:02.000Z</time>
      </trkpt>
      <trkpt lat="48.6845" lon="1.9398">
        <ele>146</ele>
        <time>2025-03-15T23:34:26.000Z</time>
      </trkpt>
      <trkpt lat="48.68453" lon="1.93938">
        <ele>136</ele>
        <time>2025-03-15T23:34:58.000Z</time>
      </trkpt>
      <trkpt lat="48.68486" lon="1.93892">
        <ele>140</ele>
        <time>2025-03-15T23:36:30.000Z</time>
      </trkpt>
      <trkpt lat="48.68529" lon="1.93865">
        <ele>145</ele>
        <time>2025-03-15T23:38:15.000Z</time>
      </trkpt>
      <trkpt lat="48.68553" lon="1.93817">
        <ele>147</ele>
        <time>2025-03-15T23:39:22.000Z</time>
      </trkpt>
      <trkpt lat="48.68598" lon="1.93774">
        <ele>145</ele>
        <time>2025-03-15T23:40:23.000Z</time>
      </trkpt>
      <trkpt lat="48.68593" lon="1.93748">
        <ele>142</ele>
        <time>2025-03-15T23:40:43.000Z</time>
      </trkpt>
      <trkpt lat="48.68572" lon="1.93734">
        <ele>137</ele>
        <time>2025-03-15T23:41:10.000Z</time>
      </trkpt>
      <trkpt lat="48.68552" lon="1.93714">
        <ele>132</ele>
        <time>2025-03-15T23:41:37.000Z</time>
      </trkpt>
      <trkpt lat="48.68525" lon="1.93718">
        <ele>127</ele>
        <time>2025-03-15T23:42:08.000Z</time>
      </trkpt>
      <trkpt lat="48.6851" lon="1.93707">
        <ele>122</ele>
        <time>2025-03-15T23:42:28.000Z</time>
      </trkpt>
      <trkpt lat="48.68523" lon="1.93632">
        <ele>121</ele>
        <time>2025-03-15T23:43:27.000Z</time>
      </trkpt>
      <trkpt lat="48.68557" lon="1.93551">
        <ele>123</ele>
        <time>2025-03-15T23:45:00.000Z</time>
      </trkpt>
      <trkpt lat="48.68569" lon="1.93483">
        <ele>125</ele>
        <time>2025-03-15T23:46:14.000Z</time>
      </trkpt>
      <trkpt lat="48.68607" lon="1.93431">
        <ele>131</ele>
        <time>2025-03-15T23:48:14.000Z</time>
      </trkpt>
      <trkpt lat="48.68636" lon="1.93382">
        <ele>132</ele>
        <time>2025-03-15T23:49:15.000Z</time>
      </trkpt>
      <trkpt lat="48.68664" lon="1.93365">
        <ele>131</ele>
        <time>2025-03-15T23:49:49.000Z</time>
      </trkpt>
      <trkpt lat="48.68664" lon="1.93334">
        <ele>129</ele>
        <time>2025-03-15T23:50:13.000Z</time>
      </trkpt>
      <trkpt lat="48.68642" lon="1.93264">
        <ele>130</ele>
        <time>2025-03-15T23:51:21.000Z</time>
      </trkpt>
      <trkpt lat="48.68644" lon="1.9321">
        <ele>131</ele>
        <time>2025-03-15T23:52:12.000Z</time>
      </trkpt>
      <trkpt lat="48.68666" lon="1.93112">
        <ele>131</ele>
        <time>2025-03-15T23:53:30.000Z</time>
      </trkpt>
      <trkpt lat="48.68668" lon="1.93022">
        <ele>129</ele>
        <time>2025-03-15T23:54:38.000Z</time>
      </trkpt>
      <trkpt lat="48.68683" lon="1.92954">
        <ele>126</ele>
        <time>2025-03-15T23:55:33.000Z</time>
      </trkpt>
      <trkpt lat="48.68769" lon="1.92761">
        <ele>130</ele>
        <time>2025-03-15T23:59:09.000Z</time>
      </trkpt>
      <trkpt lat="48.68793" lon="1.92669">
        <ele>128</ele>
        <time>2025-03-16T00:00:24.000Z</time>
      </trkpt>
      <trkpt lat="48.68846" lon="1.92601">
        <ele>128</ele>
        <time>2025-03-16T00:01:44.000Z</time>
      </trkpt>
      <trkpt lat="48.68899" lon="1.92663">
        <ele>138</ele>
        <time>2025-03-16T00:04:43.000Z</time>
      </trkpt>
      <trkpt lat="48.68981" lon="1.92782">
        <ele>148</ele>
        <time>2025-03-16T00:08:35.000Z</time>
      </trkpt>
      <trkpt lat="48.69015" lon="1.92805">
        <ele>150</ele>
        <time>2025-03-16T00:09:39.000Z</time>
      </trkpt>
      <trkpt lat="48.69045" lon="1.92794">
        <ele>155</ele>
        <time>2025-03-16T00:11:06.000Z</time>
      </trkpt>
      <trkpt lat="48.69071" lon="1.92771">
        <ele>156</ele>
        <time>2025-03-16T00:11:51.000Z</time>
      </trkpt>
      <trkpt lat="48.69181" lon="1.92753">
        <ele>162</ele>
        <time>2025-03-16T00:15:00.000Z</time>
      </trkpt>
      <trkpt lat="48.6914" lon="1.92677">
        <ele>167</ele>
        <time>2025-03-16T00:17:06.000Z</time>
      </trkpt>
      <trkpt lat="48.69048" lon="1.92617">
        <ele>167</ele>
        <time>2025-03-16T00:19:01.000Z</time>
      </trkpt>
      <trkpt lat="48.69033" lon="1.92576">
        <ele>166</ele>
        <time>2025-03-16T00:19:36.000Z</time>
      </trkpt>
      <trkpt lat="48.69064" lon="1.92508">
        <ele>167</ele>
        <time>2025-03-16T00:20:48.000Z</time>
      </trkpt>
      <trkpt lat="48.69098" lon="1.92381">
        <ele>165</ele>
        <time>2025-03-16T00:22:32.000Z</time>
      </trkpt>
      <trkpt lat="48.69122" lon="1.92307">
        <ele>161</ele>
        <time>2025-03-16T00:23:35.000Z</time>
      </trkpt>
      <trkpt lat="48.69116" lon="1.92253">
        <ele>158</ele>
        <time>2025-03-16T00:24:16.000Z</time>
      </trkpt>
      <trkpt lat="48.69128" lon="1.92152">
        <ele>169</ele>
        <time>2025-03-16T00:27:26.000Z</time>
      </trkpt>
      <trkpt lat="48.69142" lon="1.92081">
        <ele>169</ele>
        <time>2025-03-16T00:28:22.000Z</time>
      </trkpt>
      <trkpt lat="48.69174" lon="1.92036">
        <ele>166</ele>
        <time>2025-03-16T00:29:12.000Z</time>
      </trkpt>
      <trkpt lat="48.69242" lon="1.92041">
        <ele>163</ele>
        <time>2025-03-16T00:30:30.000Z</time>
      </trkpt>
      <trkpt lat="48.69275" lon="1.92012">
        <ele>167</ele>
        <time>2025-03-16T00:31:55.000Z</time>
      </trkpt>
      <trkpt lat="48.69305" lon="1.91872">
        <ele>170</ele>
        <time>2025-03-16T00:34:17.000Z</time>
      </trkpt>
      <trkpt lat="48.69323" lon="1.91788">
        <ele>170</ele>
        <time>2025-03-16T00:35:24.000Z</time>
      </trkpt>
      <trkpt lat="48.6935" lon="1.9173">
        <ele>168</ele>
        <time>2025-03-16T00:36:17.000Z</time>
      </trkpt>
      <trkpt lat="48.6936" lon="1.9167">
        <ele>158</ele>
        <time>2025-03-16T00:37:04.000Z</time>
      </trkpt>
      <trkpt lat="48.6941" lon="1.91696">
        <ele>149</ele>
        <time>2025-03-16T00:38:05.000Z</time>
      </trkpt>
      <trkpt lat="48.69405" lon="1.91653">
        <ele>143</ele>
        <time>2025-03-16T00:38:38.000Z</time>
      </trkpt>
      <trkpt lat="48.69423" lon="1.91578">
        <ele>136</ele>
        <time>2025-03-16T00:39:39.000Z</time>
      </trkpt>
      <trkpt lat="48.6949" lon="1.91647">
        <ele>154</ele>
        <time>2025-03-16T00:44:17.000Z</time>
      </trkpt>
      <trkpt lat="48.69501" lon="1.91594">
        <ele>158</ele>
        <time>2025-03-16T00:45:41.000Z</time>
      </trkpt>
      <trkpt lat="48.69633" lon="1.91573">
        <ele>175</ele>
        <time>2025-03-16T00:51:07.000Z</time>
      </trkpt>
      <trkpt lat="48.69795" lon="1.91748">
        <ele>175</ele>
        <time>2025-03-16T00:54:55.000Z</time>
      </trkpt>
      <trkpt lat="48.69857" lon="1.91773">
        <ele>174</ele>
        <time>2025-03-16T00:56:09.000Z</time>
      </trkpt>
      <trkpt lat="48.69936" lon="1.91752">
        <ele>174</ele>
        <time>2025-03-16T00:57:40.000Z</time>
      </trkpt>
      <trkpt lat="48.70018" lon="1.91505">
        <ele>174</ele>
        <time>2025-03-16T01:01:09.000Z</time>
      </trkpt>
      <trkpt lat="48.69987" lon="1.9148">
        <ele>171</ele>
        <time>2025-03-16T01:01:49.000Z</time>
      </trkpt>
      <trkpt lat="48.69957" lon="1.91462">
        <ele>163</ele>
        <time>2025-03-16T01:02:26.000Z</time>
      </trkpt>
      <trkpt lat="48.69927" lon="1.91443">
        <ele>155</ele>
        <time>2025-03-16T01:03:04.000Z</time>
      </trkpt>
      <trkpt lat="48.69912" lon="1.91408">
        <ele>150</ele>
        <time>2025-03-16T01:03:35.000Z</time>
      </trkpt>
      <trkpt lat="48.69906" lon="1.91363">
        <ele>144</ele>
        <time>2025-03-16T01:04:10.000Z</time>
      </trkpt>
      <trkpt lat="48.6987" lon="1.91355">
        <ele>129</ele>
        <time>2025-03-16T01:04:51.000Z</time>
      </trkpt>
      <trkpt lat="48.69881" lon="1.91299">
        <ele>131</ele>
        <time>2025-03-16T01:05:56.000Z</time>
      </trkpt>
      <trkpt lat="48.69879" lon="1.91242">
        <ele>129</ele>
        <time>2025-03-16T01:06:39.000Z</time>
      </trkpt>
      <trkpt lat="48.69925" lon="1.91211">
        <ele>132</ele>
        <time>2025-03-16T01:08:07.000Z</time>
      </trkpt>
      <trkpt lat="48.69934" lon="1.91076">
        <ele>133</ele>
        <time>2025-03-16T01:10:00.000Z</time>
      </trkpt>
      <trkpt lat="48.69963" lon="1.90858">
        <ele>134</ele>
        <time>2025-03-16T01:12:59.000Z</time>
      </trkpt>
      <trkpt lat="48.70032" lon="1.90705">
        <ele>133</ele>
        <time>2025-03-16T01:15:19.000Z</time>
      </trkpt>
      <trkpt lat="48.70067" lon="1.9068">
        <ele>135</ele>
        <time>2025-03-16T01:16:24.000Z</time>
      </trkpt>
      <trkpt lat="48.70067" lon="1.9063">
        <ele>135</ele>
        <time>2025-03-16T01:17:02.000Z</time>
      </trkpt>
      <trkpt lat="48.70043" lon="1.90562">
        <ele>136</ele>
        <time>2025-03-16T01:18:11.000Z</time>
      </trkpt>
      <trkpt lat="48.70032" lon="1.90521">
        <ele>135</ele>
        <time>2025-03-16T01:18:44.000Z</time>
      </trkpt>
      <trkpt lat="48.70022" lon="1.90424">
        <ele>136</ele>
        <time>2025-03-16T01:20:09.000Z</time>
      </trkpt>
      <trkpt lat="48.70007" lon="1.90368">
        <ele>136</ele>
        <time>2025-03-16T01:20:54.000Z</time>
      </trkpt>
      <trkpt lat="48.70002" lon="1.90246">
        <ele>135</ele>
        <time>2025-03-16T01:22:27.000Z</time>
      </trkpt>
      <trkpt lat="48.70015" lon="1.90098">
        <ele>138</ele>
        <time>2025-03-16T01:24:50.000Z</time>
      </trkpt>
      <trkpt lat="48.70004" lon="1.90004">
        <ele>136</ele>
        <time>2025-03-16T01:26:02.000Z</time>
      </trkpt>
      <trkpt lat="48.70008" lon="1.89941">
        <ele>136</ele>
        <time>2025-03-16T01:26:50.000Z</time>
      </trkpt>
      <trkpt lat="48.7001" lon="1.89896">
        <ele>136</ele>
        <time>2025-03-16T01:27:24.000Z</time>
      </trkpt>
      <trkpt lat="48.70089" lon="1.89842">
        <ele>138</ele>
        <time>2025-03-16T01:29:24.000Z</time>
      </trkpt>
      <trkpt lat="48.70096" lon="1.89772">
        <ele>137</ele>
        <time>2025-03-16T01:30:17.000Z</time>
      </trkpt>
      <trkpt lat="48.70125" lon="1.89741">
        <ele>137</ele>
        <time>2025-03-16T01:30:58.000Z</time>
      </trkpt>
      <trkpt lat="48.70169" lon="1.89725">
        <ele>137</ele>
        <time>2025-03-16T01:31:49.000Z</time>
      </trkpt>
      <trkpt lat="48.70185" lon="1.89722">
        <ele>138</ele>
        <time>2025-03-16T01:32:18.000Z</time>
      </trkpt>
      <trkpt lat="48.70269" lon="1.89589">
        <ele>140</ele>
        <time>2025-03-16T01:34:58.000Z</time>
      </trkpt>
      <trkpt lat="48.70314" lon="1.89556">
        <ele>138</ele>
        <time>2025-03-16T01:35:56.000Z</time>
      </trkpt>
      <trkpt lat="48.70339" lon="1.89501">
        <ele>140</ele>
        <time>2025-03-16T01:37:07.000Z</time>
      </trkpt>
      <trkpt lat="48.70321" lon="1.8945">
        <ele>140</ele>
        <time>2025-03-16T01:37:50.000Z</time>
      </trkpt>
      <trkpt lat="48.70298" lon="1.89408">
        <ele>138</ele>
        <time>2025-03-16T01:38:32.000Z</time>
      </trkpt>
      <trkpt lat="48.70293" lon="1.89345">
        <ele>138</ele>
        <time>2025-03-16T01:39:19.000Z</time>
      </trkpt>
      <trkpt lat="48.70183" lon="1.89189">
        <ele>140</ele>
        <time>2025-03-16T01:42:33.000Z</time>
      </trkpt>
      <trkpt lat="48.70235" lon="1.88959">
        <ele>139</ele>
        <time>2025-03-16T01:45:36.000Z</time>
      </trkpt>
      <trkpt lat="48.70227" lon="1.8877">
        <ele>143</ele>
        <time>2025-03-16T01:48:40.000Z</time>
      </trkpt>
      <trkpt lat="48.7023" lon="1.88709">
        <ele>145</ele>
        <time>2025-03-16T01:49:47.000Z</time>
      </trkpt>
      <trkpt lat="48.70252" lon="1.88523">
        <ele>148</ele>
        <time>2025-03-16T01:52:40.000Z</time>
      </trkpt>
      <trkpt lat="48.70241" lon="1.88499">
        <ele>148</ele>
        <time>2025-03-16T01:53:02.000Z</time>
      </trkpt>
      <trkpt lat="48.70226" lon="1.88496">
        <ele>148</ele>
        <time>2025-03-16T01:53:19.000Z</time>
      </trkpt>
      <trkpt lat="48.7012" lon="1.88437">
        <ele>149</ele>
        <time>2025-03-16T01:55:38.000Z</time>
      </trkpt>
      <trkpt lat="48.70096" lon="1.88452">
        <ele>150</ele>
        <time>2025-03-16T01:56:19.000Z</time>
      </trkpt>
      <trkpt lat="48.70056" lon="1.88355">
        <ele>145</ele>
        <time>2025-03-16T01:57:45.000Z</time>
      </trkpt>
      <trkpt lat="48.7" lon="1.8815">
        <ele>144</ele>
        <time>2025-03-16T02:00:33.000Z</time>
      </trkpt>
      <trkpt lat="48.69913" lon="1.88076">
        <ele>145</ele>
        <time>2025-03-16T02:02:37.000Z</time>
      </trkpt>
      <trkpt lat="48.69883" lon="1.87991">
        <ele>146</ele>
        <time>2025-03-16T02:04:00.000Z</time>
      </trkpt>
      <trkpt lat="48.69848" lon="1.87964">
        <ele>146</ele>
        <time>2025-03-16T02:04:45.000Z</time>
      </trkpt>
      <trkpt lat="48.69838" lon="1.87914">
        <ele>147</ele>
        <time>2025-03-16T02:05:35.000Z</time>
      </trkpt>
      <trkpt lat="48.69802" lon="1.87618">
        <ele>151</ele>
        <time>2025-03-16T02:10:03.000Z</time>
      </trkpt>
      <trkpt lat="48.69744" lon="1.87532">
        <ele>154</ele>
        <time>2025-03-16T02:12:07.000Z</time>
      </trkpt>
      <trkpt lat="48.6972" lon="1.87447">
        <ele>156</ele>
        <time>2025-03-16T02:13:37.000Z</time>
      </trkpt>
      <trkpt lat="48.69697" lon="1.87296">
        <ele>158</ele>
        <time>2025-03-16T02:15:55.000Z</time>
      </trkpt>
      <trkpt lat="48.69646" lon="1.87096">
        <ele>159</ele>
        <time>2025-03-16T02:18:47.000Z</time>
      </trkpt>
      <trkpt lat="48.69585" lon="1.87006">
        <ele>160</ele>
        <time>2025-03-16T02:20:34.000Z</time>
      </trkpt>
      <trkpt lat="48.69477" lon="1.86942">
        <ele>162</ele>
        <time>2025-03-16T02:23:08.000Z</time>
      </trkpt>
      <trkpt lat="48.69416" lon="1.86761">
        <ele>167</ele>
        <time>2025-03-16T02:26:33.000Z</time>
      </trkpt>
      <trkpt lat="48.69428" lon="1.86703">
        <ele>167</ele>
        <time>2025-03-16T02:27:19.000Z</time>
      </trkpt>
      <trkpt lat="48.69442" lon="1.86619">
        <ele>168</ele>
        <time>2025-03-16T02:28:35.000Z</time>
      </trkpt>
      <trkpt lat="48.6949" lon="1.86516">
        <ele>167</ele>
        <time>2025-03-16T02:30:10.000Z</time>
      </trkpt>
      <trkpt lat="48.69535" lon="1.86528">
        <ele>168</ele>
        <time>2025-03-16T02:31:13.000Z</time>
      </trkpt>
      <trkpt lat="48.69593" lon="1.86483">
        <ele>172</ele>
        <time>2025-03-16T02:33:08.000Z</time>
      </trkpt>
      <trkpt lat="48.69396" lon="1.86425">
        <ele>173</ele>
        <time>2025-03-16T02:37:08.000Z</time>
      </trkpt>
      <trkpt lat="48.69249" lon="1.86843">
        <ele>173</ele>
        <time>2025-03-16T02:43:07.000Z</time>
      </trkpt>
      <trkpt lat="48.68918" lon="1.86869">
        <ele>172</ele>
        <time>2025-03-16T02:49:26.000Z</time>
      </trkpt>
      <trkpt lat="48.68903" lon="1.86846">
        <ele>173</ele>
        <time>2025-03-16T02:50:00.000Z</time>
      </trkpt>
      <trkpt lat="48.68896" lon="1.86815">
        <ele>173</ele>
        <time>2025-03-16T02:50:25.000Z</time>
      </trkpt>
      <trkpt lat="48.68882" lon="1.86799">
        <ele>173</ele>
        <time>2025-03-16T02:50:46.000Z</time>
      </trkpt>
      <trkpt lat="48.68687" lon="1.86865">
        <ele>171</ele>
        <time>2025-03-16T02:54:35.000Z</time>
      </trkpt>
      <trkpt lat="48.68664" lon="1.86875">
        <ele>171</ele>
        <time>2025-03-16T02:55:03.000Z</time>
      </trkpt>
      <trkpt lat="48.68552" lon="1.86908">
        <ele>171</ele>
        <time>2025-03-16T02:57:13.000Z</time>
      </trkpt>
      <trkpt lat="48.68075" lon="1.87064">
        <ele>170</ele>
        <time>2025-03-16T03:06:33.000Z</time>
      </trkpt>
      <trkpt lat="48.68046" lon="1.87088">
        <ele>170</ele>
        <time>2025-03-16T03:07:10.000Z</time>
      </trkpt>
      <trkpt lat="48.67909" lon="1.87124">
        <ele>170</ele>
        <time>2025-03-16T03:09:50.000Z</time>
      </trkpt>
      <trkpt lat="48.67739" lon="1.8714">
        <ele>170</ele>
        <time>2025-03-16T03:13:05.000Z</time>
      </trkpt>
      <trkpt lat="48.67737" lon="1.87112">
        <ele>170</ele>
        <time>2025-03-16T03:13:26.000Z</time>
      </trkpt>
      <trkpt lat="48.67687" lon="1.87125">
        <ele>170</ele>
        <time>2025-03-16T03:14:25.000Z</time>
      </trkpt>
      <trkpt lat="48.6765" lon="1.87119">
        <ele>170</ele>
        <time>2025-03-16T03:15:07.000Z</time>
      </trkpt>
      <trkpt lat="48.67493" lon="1.8707">
        <ele>170</ele>
        <time>2025-03-16T03:18:11.000Z</time>
      </trkpt>
      <trkpt lat="48.67478" lon="1.87057">
        <ele>171</ele>
        <time>2025-03-16T03:18:41.000Z</time>
      </trkpt>
      <trkpt lat="48.67475" lon="1.87087">
        <ele>170</ele>
        <time>2025-03-16T03:19:04.000Z</time>
      </trkpt>
      <trkpt lat="48.67266" lon="1.8702">
        <ele>167</ele>
        <time>2025-03-16T03:23:09.000Z</time>
      </trkpt>
      <trkpt lat="48.66956" lon="1.87237">
        <ele>170</ele>
        <time>2025-03-16T03:30:11.000Z</time>
      </trkpt>
      <trkpt lat="48.66951" lon="1.8722">
        <ele>168</ele>
        <time>2025-03-16T03:30:25.000Z</time>
      </trkpt>
      <trkpt lat="48.66454" lon="1.87453">
        <ele>170</ele>
        <time>2025-03-16T03:40:41.000Z</time>
      </trkpt>
      <trkpt lat="48.66441" lon="1.87418">
        <ele>169</ele>
        <time>2025-03-16T03:41:11.000Z</time>
      </trkpt>
      <trkpt lat="48.66417" lon="1.87481">
        <ele>169</ele>
        <time>2025-03-16T03:42:06.000Z</time>
      </trkpt>
      <trkpt lat="48.66289" lon="1.87544">
        <ele>168</ele>
        <time>2025-03-16T03:44:39.000Z</time>
      </trkpt>
      <trkpt lat="48.66311" lon="1.87697">
        <ele>170</ele>
        <time>2025-03-16T03:46:58.000Z</time>
      </trkpt>
      <trkpt lat="48.66167" lon="1.87993">
        <ele>168</ele>
        <time>2025-03-16T03:51:36.000Z</time>
      </trkpt>
      <trkpt lat="48.66106" lon="1.87993">
        <ele>167</ele>
        <time>2025-03-16T03:52:46.000Z</time>
      </trkpt>
      <trkpt lat="48.66065" lon="1.88036">
        <ele>167</ele>
        <time>2025-03-16T03:53:43.000Z</time>
      </trkpt>
      <trkpt lat="48.6603" lon="1.88038">
        <ele>167</ele>
        <time>2025-03-16T03:54:23.000Z</time>
      </trkpt>
      <trkpt lat="48.65987" lon="1.88034">
        <ele>168</ele>
        <time>2025-03-16T03:55:22.000Z</time>
      </trkpt>
      <trkpt lat="48.65959" lon="1.88058">
        <ele>168</ele>
        <time>2025-03-16T03:55:59.000Z</time>
      </trkpt>
      <trkpt lat="48.65938" lon="1.8814">
        <ele>168</ele>
        <time>2025-03-16T03:57:06.000Z</time>
      </trkpt>
      <trkpt lat="48.65919" lon="1.88263">
        <ele>168</ele>
        <time>2025-03-16T03:58:41.000Z</time>
      </trkpt>
      <trkpt lat="48.65912" lon="1.88339">
        <ele>168</ele>
        <time>2025-03-16T03:59:39.000Z</time>
      </trkpt>
      <trkpt lat="48.65898" lon="1.88416">
        <ele>169</ele>
        <time>2025-03-16T04:00:50.000Z</time>
      </trkpt>
      <trkpt lat="48.65873" lon="1.88451">
        <ele>168</ele>
        <time>2025-03-16T04:01:29.000Z</time>
      </trkpt>
      <trkpt lat="48.6574" lon="1.88517">
        <ele>168</ele>
        <time>2025-03-16T04:04:09.000Z</time>
      </trkpt>
      <trkpt lat="48.65685" lon="1.88527">
        <ele>167</ele>
        <time>2025-03-16T04:05:13.000Z</time>
      </trkpt>
      <trkpt lat="48.65574" lon="1.8852">
        <ele>168</ele>
        <time>2025-03-16T04:07:30.000Z</time>
      </trkpt>
      <trkpt lat="48.65441" lon="1.88466">
        <ele>168</ele>
        <time>2025-03-16T04:10:08.000Z</time>
      </trkpt>
      <trkpt lat="48.65451" lon="1.88506">
        <ele>169</ele>
        <time>2025-03-16T04:10:50.000Z</time>
      </trkpt>
      <trkpt lat="48.65444" lon="1.88526">
        <ele>169</ele>
        <time>2025-03-16T04:11:07.000Z</time>
      </trkpt>
      <trkpt lat="48.65429" lon="1.88579">
        <ele>168</ele>
        <time>2025-03-16T04:11:51.000Z</time>
      </trkpt>
      <trkpt lat="48.654" lon="1.8878">
        <ele>169</ele>
        <time>2025-03-16T04:14:37.000Z</time>
      </trkpt>
      <trkpt lat="48.65304" lon="1.89366">
        <ele>170</ele>
        <time>2025-03-16T04:22:24.000Z</time>
      </trkpt>
      <trkpt lat="48.65193" lon="1.9005">
        <ele>174</ele>
        <time>2025-03-16T04:31:58.000Z</time>
      </trkpt>
      <trkpt lat="48.64914" lon="1.90639">
        <ele>172</ele>
        <time>2025-03-16T04:41:06.000Z</time>
      </trkpt>
      <trkpt lat="48.65288" lon="1.91052">
        <ele>173</ele>
        <time>2025-03-16T04:50:06.000Z</time>
      </trkpt>
      <trkpt lat="48.6495" lon="1.91812">
        <ele>173</ele>
        <time>2025-03-16T05:01:38.000Z</time>
      </trkpt>
      <trkpt lat="48.65623" lon="1.92552">
        <ele>168</ele>
        <time>2025-03-16T05:17:30.000Z</time>
      </trkpt>
      <trkpt lat="48.65647" lon="1.92999">
        <ele>168</ele>
        <time>2025-03-16T05:23:09.000Z</time>
      </trkpt>
      <trkpt lat="48.65637" lon="1.93045">
        <ele>166.1</ele>
        <time>2025-03-16T05:24:06.000Z</time>
        <extensions>
          <visugpx:TrkExtension xmlns:visugpx="https://www.visugpx.com/editgpx/">
            <visugpx:node>1</visugpx:node>
            </visugpx:TrkExtension>
        </extensions>
      </trkpt>
    </trkseg>
  </trk>
  <trk>
    <name><![CDATA[Vallée de Chevreuse 3/3]]></name>
    <extensions>
      <line xmlns="http://www.topografix.com/GPX/gpx_style/0/2">
        <color>FF0000</color>
        <width>4</width>
        <dasharray>8</dasharray>
          <extensions>
            <sens>1</sens>
          </extensions>
      </line>
    </extensions>
    <trkseg>
      <trkpt lat="48.65639" lon="1.93047">
        <ele>166.3</ele>
        <time>2025-03-16T05:24:06.000Z</time>
        <extensions>
          <visugpx:TrkExtension xmlns:visugpx="https://www.visugpx.com/editgpx/">
            <visugpx:node>1</visugpx:node>
            </visugpx:TrkExtension>
        </extensions>
      </trkpt>
      <trkpt lat="48.65653" lon="1.93">
        <ele>168</ele>
        <time>2025-03-16T05:25:35.000Z</time>
      </trkpt>
      <trkpt lat="48.65616" lon="1.92551">
        <ele>168</ele>
        <time>2025-03-16T05:31:17.000Z</time>
      </trkpt>
      <trkpt lat="48.65536" lon="1.9246">
        <ele>168</ele>
        <time>2025-03-16T05:33:11.000Z</time>
      </trkpt>
      <trkpt lat="48.65697" lon="1.92067">
        <ele>170</ele>
        <time>2025-03-16T05:39:21.000Z</time>
      </trkpt>
      <trkpt lat="48.65852" lon="1.91711">
        <ele>172</ele>
        <time>2025-03-16T05:45:04.000Z</time>
      </trkpt>
      <trkpt lat="48.65856" lon="1.91903">
        <ele>171</ele>
        <time>2025-03-16T05:47:30.000Z</time>
      </trkpt>
      <trkpt lat="48.66077" lon="1.91856">
        <ele>171</ele>
        <time>2025-03-16T05:51:45.000Z</time>
      </trkpt>
      <trkpt lat="48.66432" lon="1.91761">
        <ele>173</ele>
        <time>2025-03-16T05:58:59.000Z</time>
      </trkpt>
      <trkpt lat="48.66535" lon="1.91728">
        <ele>173</ele>
        <time>2025-03-16T06:00:59.000Z</time>
      </trkpt>
      <trkpt lat="48.6674" lon="1.91578">
        <ele>173</ele>
        <time>2025-03-16T06:05:19.000Z</time>
      </trkpt>
      <trkpt lat="48.6681" lon="1.91534">
        <ele>173</ele>
        <time>2025-03-16T06:06:46.000Z</time>
      </trkpt>
      <trkpt lat="48.67149" lon="1.9136">
        <ele>173</ele>
        <time>2025-03-16T06:13:36.000Z</time>
      </trkpt>
      <trkpt lat="48.67355" lon="1.91561">
        <ele>175</ele>
        <time>2025-03-16T06:18:37.000Z</time>
      </trkpt>
      <trkpt lat="48.67165" lon="1.91812">
        <ele>175</ele>
        <time>2025-03-16T06:23:26.000Z</time>
      </trkpt>
      <trkpt lat="48.67062" lon="1.92001">
        <ele>174</ele>
        <time>2025-03-16T06:26:31.000Z</time>
      </trkpt>
      <trkpt lat="48.66975" lon="1.92245">
        <ele>173</ele>
        <time>2025-03-16T06:30:01.000Z</time>
      </trkpt>
      <trkpt lat="48.67195" lon="1.92477">
        <ele>174</ele>
        <time>2025-03-16T06:35:19.000Z</time>
      </trkpt>
      <trkpt lat="48.6726" lon="1.92545">
        <ele>173</ele>
        <time>2025-03-16T06:36:49.000Z</time>
      </trkpt>
      <trkpt lat="48.67361" lon="1.92715">
        <ele>173</ele>
        <time>2025-03-16T06:39:42.000Z</time>
      </trkpt>
      <trkpt lat="48.67417" lon="1.92843">
        <ele>172</ele>
        <time>2025-03-16T06:41:37.000Z</time>
      </trkpt>
      <trkpt lat="48.67525" lon="1.92981">
        <ele>171</ele>
        <time>2025-03-16T06:44:19.000Z</time>
      </trkpt>
      <trkpt lat="48.67603" lon="1.93046">
        <ele>172</ele>
        <time>2025-03-16T06:46:11.000Z</time>
      </trkpt>
      <trkpt lat="48.67812" lon="1.93077">
        <ele>173</ele>
        <time>2025-03-16T06:50:22.000Z</time>
      </trkpt>
      <trkpt lat="48.67833" lon="1.93077">
        <ele>173</ele>
        <time>2025-03-16T06:50:46.000Z</time>
      </trkpt>
      <trkpt lat="48.6793" lon="1.9312">
        <ele>171</ele>
        <time>2025-03-16T06:52:42.000Z</time>
      </trkpt>
      <trkpt lat="48.67872" lon="1.9346">
        <ele>172</ele>
        <time>2025-03-16T06:57:18.000Z</time>
      </trkpt>
      <trkpt lat="48.67863" lon="1.93629">
        <ele>173</ele>
        <time>2025-03-16T06:59:37.000Z</time>
      </trkpt>
      <trkpt lat="48.67851" lon="1.93673">
        <ele>173</ele>
        <time>2025-03-16T07:00:12.000Z</time>
      </trkpt>
      <trkpt lat="48.67834" lon="1.93708">
        <ele>173</ele>
        <time>2025-03-16T07:00:45.000Z</time>
      </trkpt>
      <trkpt lat="48.67749" lon="1.93881">
        <ele>172</ele>
        <time>2025-03-16T07:03:28.000Z</time>
      </trkpt>
      <trkpt lat="48.68156" lon="1.94216">
        <ele>123</ele>
        <time>2025-03-16T07:12:18.000Z</time>
      </trkpt>
      <trkpt lat="48.68175" lon="1.94197">
        <ele>122</ele>
        <time>2025-03-16T07:12:43.000Z</time>
      </trkpt>
      <trkpt lat="48.68296" lon="1.94214">
        <ele>119</ele>
        <time>2025-03-16T07:15:02.000Z</time>
      </trkpt>
      <trkpt lat="48.68279" lon="1.94295">
        <ele>121</ele>
        <time>2025-03-16T07:16:27.000Z</time>
      </trkpt>
      <trkpt lat="48.6826" lon="1.94353">
        <ele>122</ele>
        <time>2025-03-16T07:17:26.000Z</time>
      </trkpt>
      <trkpt lat="48.68227" lon="1.94449">
        <ele>122</ele>
        <time>2025-03-16T07:18:48.000Z</time>
      </trkpt>
      <trkpt lat="48.68179" lon="1.94455">
        <ele>119</ele>
        <time>2025-03-16T07:19:44.000Z</time>
      </trkpt>
      <trkpt lat="48.6814" lon="1.945">
        <ele>120</ele>
        <time>2025-03-16T07:20:50.000Z</time>
      </trkpt>
      <trkpt lat="48.68127" lon="1.94543">
        <ele>121</ele>
        <time>2025-03-16T07:21:36.000Z</time>
      </trkpt>
      <trkpt lat="48.68135" lon="1.94697">
        <ele>128</ele>
        <time>2025-03-16T07:24:45.000Z</time>
      </trkpt>
      <trkpt lat="48.68088" lon="1.94835">
        <ele>119</ele>
        <time>2025-03-16T07:26:43.000Z</time>
      </trkpt>
      <trkpt lat="48.68085" lon="1.94918">
        <ele>121</ele>
        <time>2025-03-16T07:28:06.000Z</time>
      </trkpt>
      <trkpt lat="48.68063" lon="1.94964">
        <ele>120</ele>
        <time>2025-03-16T07:28:49.000Z</time>
      </trkpt>
      <trkpt lat="48.68005" lon="1.94999">
        <ele>118</ele>
        <time>2025-03-16T07:30:00.000Z</time>
      </trkpt>
      <trkpt lat="48.6797" lon="1.95049">
        <ele>118</ele>
        <time>2025-03-16T07:30:56.000Z</time>
      </trkpt>
      <trkpt lat="48.67945" lon="1.95107">
        <ele>116</ele>
        <time>2025-03-16T07:31:48.000Z</time>
      </trkpt>
      <trkpt lat="48.67932" lon="1.95254">
        <ele>118</ele>
        <time>2025-03-16T07:34:01.000Z</time>
      </trkpt>
      <trkpt lat="48.67882" lon="1.95356">
        <ele>118</ele>
        <time>2025-03-16T07:35:36.000Z</time>
      </trkpt>
      <trkpt lat="48.67853" lon="1.95442">
        <ele>116</ele>
        <time>2025-03-16T07:36:49.000Z</time>
      </trkpt>
      <trkpt lat="48.67862" lon="1.95528">
        <ele>118</ele>
        <time>2025-03-16T07:38:16.000Z</time>
      </trkpt>
      <trkpt lat="48.67842" lon="1.95605">
        <ele>119</ele>
        <time>2025-03-16T07:39:29.000Z</time>
      </trkpt>
      <trkpt lat="48.67753" lon="1.95749">
        <ele>117</ele>
        <time>2025-03-16T07:41:59.000Z</time>
      </trkpt>
      <trkpt lat="48.67728" lon="1.95834">
        <ele>117</ele>
        <time>2025-03-16T07:43:09.000Z</time>
      </trkpt>
      <trkpt lat="48.67694" lon="1.95912">
        <ele>117</ele>
        <time>2025-03-16T07:44:20.000Z</time>
      </trkpt>
      <trkpt lat="48.67679" lon="1.96001">
        <ele>117</ele>
        <time>2025-03-16T07:45:29.000Z</time>
      </trkpt>
      <trkpt lat="48.67685" lon="1.96069">
        <ele>118</ele>
        <time>2025-03-16T07:46:32.000Z</time>
      </trkpt>
      <trkpt lat="48.67674" lon="1.96138">
        <ele>117</ele>
        <time>2025-03-16T07:47:25.000Z</time>
      </trkpt>
      <trkpt lat="48.67683" lon="1.96173">
        <ele>122</ele>
        <time>2025-03-16T07:48:45.000Z</time>
      </trkpt>
      <trkpt lat="48.67671" lon="1.96187">
        <ele>118</ele>
        <time>2025-03-16T07:49:02.000Z</time>
      </trkpt>
      <trkpt lat="48.67654" lon="1.96207">
        <ele>115</ele>
        <time>2025-03-16T07:49:27.000Z</time>
      </trkpt>
      <trkpt lat="48.67654" lon="1.96252">
        <ele>115</ele>
        <time>2025-03-16T07:50:01.000Z</time>
      </trkpt>
      <trkpt lat="48.67673" lon="1.96292">
        <ele>115</ele>
        <time>2025-03-16T07:50:39.000Z</time>
      </trkpt>
      <trkpt lat="48.67702" lon="1.96323">
        <ele>115</ele>
        <time>2025-03-16T07:51:19.000Z</time>
      </trkpt>
      <trkpt lat="48.67746" lon="1.96404">
        <ele>115</ele>
        <time>2025-03-16T07:52:38.000Z</time>
      </trkpt>
      <trkpt lat="48.67772" lon="1.96416">
        <ele>119</ele>
        <time>2025-03-16T07:53:51.000Z</time>
      </trkpt>
      <trkpt lat="48.67784" lon="1.96452">
        <ele>112</ele>
        <time>2025-03-16T07:54:22.000Z</time>
      </trkpt>
      <trkpt lat="48.67802" lon="1.96467">
        <ele>113</ele>
        <time>2025-03-16T07:54:56.000Z</time>
      </trkpt>
      <trkpt lat="48.67831" lon="1.96469">
        <ele>112</ele>
        <time>2025-03-16T07:55:29.000Z</time>
      </trkpt>
      <trkpt lat="48.6786" lon="1.96472">
        <ele>111</ele>
        <time>2025-03-16T07:56:02.000Z</time>
      </trkpt>
      <trkpt lat="48.67896" lon="1.96498">
        <ele>107</ele>
        <time>2025-03-16T07:56:48.000Z</time>
      </trkpt>
      <trkpt lat="48.67922" lon="1.96495">
        <ele>106</ele>
        <time>2025-03-16T07:57:18.000Z</time>
      </trkpt>
      <trkpt lat="48.67939" lon="1.96562">
        <ele>110</ele>
        <time>2025-03-16T07:58:54.000Z</time>
      </trkpt>
      <trkpt lat="48.67955" lon="1.96607">
        <ele>110</ele>
        <time>2025-03-16T07:59:32.000Z</time>
      </trkpt>
      <trkpt lat="48.6789" lon="1.96598">
        <ele>114</ele>
        <time>2025-03-16T08:01:28.000Z</time>
      </trkpt>
      <trkpt lat="48.67891" lon="1.96649">
        <ele>114</ele>
        <time>2025-03-16T08:02:06.000Z</time>
      </trkpt>
      <trkpt lat="48.67897" lon="1.96677">
        <ele>113</ele>
        <time>2025-03-16T08:02:28.000Z</time>
      </trkpt>
      <trkpt lat="48.67902" lon="1.96769">
        <ele>113</ele>
        <time>2025-03-16T08:03:38.000Z</time>
      </trkpt>
      <trkpt lat="48.67939" lon="1.96802">
        <ele>113</ele>
        <time>2025-03-16T08:04:27.000Z</time>
      </trkpt>
      <trkpt lat="48.67966" lon="1.96846">
        <ele>114</ele>
        <time>2025-03-16T08:05:22.000Z</time>
      </trkpt>
      <trkpt lat="48.67976" lon="1.96973">
        <ele>119</ele>
        <time>2025-03-16T08:07:50.000Z</time>
      </trkpt>
      <trkpt lat="48.68037" lon="1.97106">
        <ele>123</ele>
        <time>2025-03-16T08:10:34.000Z</time>
      </trkpt>
      <trkpt lat="48.68015" lon="1.97204">
        <ele>126</ele>
        <time>2025-03-16T08:12:23.000Z</time>
      </trkpt>
      <trkpt lat="48.68" lon="1.97308">
        <ele>128</ele>
        <time>2025-03-16T08:14:04.000Z</time>
      </trkpt>
      <trkpt lat="48.68008" lon="1.97387">
        <ele>126</ele>
        <time>2025-03-16T08:15:05.000Z</time>
      </trkpt>
      <trkpt lat="48.67994" lon="1.9744">
        <ele>126</ele>
        <time>2025-03-16T08:15:48.000Z</time>
      </trkpt>
      <trkpt lat="48.67999" lon="1.97561">
        <ele>129</ele>
        <time>2025-03-16T08:17:51.000Z</time>
      </trkpt>
      <trkpt lat="48.67987" lon="1.97623">
        <ele>130</ele>
        <time>2025-03-16T08:18:50.000Z</time>
      </trkpt>
      <trkpt lat="48.68005" lon="1.97644">
        <ele>129</ele>
        <time>2025-03-16T08:19:16.000Z</time>
      </trkpt>
      <trkpt lat="48.68035" lon="1.97655">
        <ele>128</ele>
        <time>2025-03-16T08:19:52.000Z</time>
      </trkpt>
      <trkpt lat="48.68038" lon="1.97704">
        <ele>129</ele>
        <time>2025-03-16T08:20:40.000Z</time>
      </trkpt>
      <trkpt lat="48.68004" lon="1.97872">
        <ele>131</ele>
        <time>2025-03-16T08:23:14.000Z</time>
      </trkpt>
      <trkpt lat="48.67987" lon="1.9795">
        <ele>131</ele>
        <time>2025-03-16T08:24:16.000Z</time>
      </trkpt>
      <trkpt lat="48.67953" lon="1.98017">
        <ele>132</ele>
        <time>2025-03-16T08:25:30.000Z</time>
      </trkpt>
      <trkpt lat="48.67931" lon="1.98116">
        <ele>130</ele>
        <time>2025-03-16T08:26:49.000Z</time>
      </trkpt>
      <trkpt lat="48.67927" lon="1.9816">
        <ele>128</ele>
        <time>2025-03-16T08:27:23.000Z</time>
      </trkpt>
      <trkpt lat="48.67919" lon="1.98202">
        <ele>128</ele>
        <time>2025-03-16T08:27:56.000Z</time>
      </trkpt>
      <trkpt lat="48.67948" lon="1.98264">
        <ele>126</ele>
        <time>2025-03-16T08:28:53.000Z</time>
      </trkpt>
      <trkpt lat="48.68083" lon="1.98142">
        <ele>118</ele>
        <time>2025-03-16T08:31:53.000Z</time>
      </trkpt>
      <trkpt lat="48.68132" lon="1.98142">
        <ele>117</ele>
        <time>2025-03-16T08:32:49.000Z</time>
      </trkpt>
      <trkpt lat="48.68167" lon="1.98188">
        <ele>117</ele>
        <time>2025-03-16T08:33:43.000Z</time>
      </trkpt>
      <trkpt lat="48.68197" lon="1.98204">
        <ele>118</ele>
        <time>2025-03-16T08:34:29.000Z</time>
      </trkpt>
      <trkpt lat="48.68251" lon="1.98177">
        <ele>121</ele>
        <time>2025-03-16T08:36:05.000Z</time>
      </trkpt>
      <trkpt lat="48.68278" lon="1.98184">
        <ele>122</ele>
        <time>2025-03-16T08:36:47.000Z</time>
      </trkpt>
      <trkpt lat="48.68297" lon="1.98218">
        <ele>125</ele>
        <time>2025-03-16T08:37:51.000Z</time>
      </trkpt>
      <trkpt lat="48.68314" lon="1.9821">
        <ele>122</ele>
        <time>2025-03-16T08:38:11.000Z</time>
      </trkpt>
      <trkpt lat="48.68315" lon="1.98236">
        <ele>124</ele>
        <time>2025-03-16T08:38:51.000Z</time>
      </trkpt>
      <trkpt lat="48.68308" lon="1.98293">
        <ele>128</ele>
        <time>2025-03-16T08:40:16.000Z</time>
      </trkpt>
      <trkpt lat="48.68308" lon="1.98334">
        <ele>129</ele>
        <time>2025-03-16T08:40:58.000Z</time>
      </trkpt>
      <trkpt lat="48.68328" lon="1.98341">
        <ele>132</ele>
        <time>2025-03-16T08:41:52.000Z</time>
      </trkpt>
      <trkpt lat="48.68403" lon="1.9829">
        <ele>137</ele>
        <time>2025-03-16T08:44:18.000Z</time>
      </trkpt>
      <trkpt lat="48.68447" lon="1.98297">
        <ele>138</ele>
        <time>2025-03-16T08:45:19.000Z</time>
      </trkpt>
      <trkpt lat="48.6848" lon="1.98334">
        <ele>139</ele>
        <time>2025-03-16T08:46:16.000Z</time>
      </trkpt>
      <trkpt lat="48.68476" lon="1.98385">
        <ele>143</ele>
        <time>2025-03-16T08:47:36.000Z</time>
      </trkpt>
      <trkpt lat="48.68495" lon="1.98408">
        <ele>144</ele>
        <time>2025-03-16T08:48:15.000Z</time>
      </trkpt>
      <trkpt lat="48.68581" lon="1.98471">
        <ele>145</ele>
        <time>2025-03-16T08:50:14.000Z</time>
      </trkpt>
      <trkpt lat="48.68643" lon="1.9859">
        <ele>144</ele>
        <time>2025-03-16T08:52:09.000Z</time>
      </trkpt>
      <trkpt lat="48.68638" lon="1.98701">
        <ele>143</ele>
        <time>2025-03-16T08:53:33.000Z</time>
      </trkpt>
      <trkpt lat="48.68652" lon="1.98723">
        <ele>145</ele>
        <time>2025-03-16T08:54:16.000Z</time>
      </trkpt>
      <trkpt lat="48.68631" lon="1.98744">
        <ele>149</ele>
        <time>2025-03-16T08:55:26.000Z</time>
      </trkpt>
      <trkpt lat="48.68593" lon="1.98778">
        <ele>161</ele>
        <time>2025-03-16T08:58:19.000Z</time>
      </trkpt>
      <trkpt lat="48.68543" lon="1.98848">
        <ele>168</ele>
        <time>2025-03-16T09:00:49.000Z</time>
      </trkpt>
      <trkpt lat="48.68544" lon="1.98935">
        <ele>171</ele>
        <time>2025-03-16T09:02:26.000Z</time>
      </trkpt>
      <trkpt lat="48.68514" lon="1.99056">
        <ele>173</ele>
        <time>2025-03-16T09:04:25.000Z</time>
      </trkpt>
      <trkpt lat="48.68493" lon="1.99117">
        <ele>173</ele>
        <time>2025-03-16T09:05:17.000Z</time>
      </trkpt>
      <trkpt lat="48.68562" lon="1.99182">
        <ele>175</ele>
        <time>2025-03-16T09:07:11.000Z</time>
      </trkpt>
      <trkpt lat="48.68392" lon="1.99687">
        <ele>177</ele>
        <time>2025-03-16T09:14:40.000Z</time>
      </trkpt>
      <trkpt lat="48.6832" lon="1.99893">
        <ele>177</ele>
        <time>2025-03-16T09:17:36.000Z</time>
      </trkpt>
      <trkpt lat="48.68249" lon="2.00037">
        <ele>176</ele>
        <time>2025-03-16T09:19:52.000Z</time>
      </trkpt>
      <trkpt lat="48.68318" lon="2.00143">
        <ele>176</ele>
        <time>2025-03-16T09:21:44.000Z</time>
      </trkpt>
      <trkpt lat="48.68297" lon="2.00333">
        <ele>175</ele>
        <time>2025-03-16T09:24:10.000Z</time>
      </trkpt>
      <trkpt lat="48.68185" lon="2.00763">
        <ele>173</ele>
        <time>2025-03-16T09:30:00.000Z</time>
      </trkpt>
      <trkpt lat="48.68182" lon="2.00952">
        <ele>172</ele>
        <time>2025-03-16T09:32:23.000Z</time>
      </trkpt>
      <trkpt lat="48.68171" lon="2.01044">
        <ele>170</ele>
        <time>2025-03-16T09:33:34.000Z</time>
      </trkpt>
      <trkpt lat="48.68119" lon="2.00938">
        <ele>172</ele>
        <time>2025-03-16T09:35:35.000Z</time>
      </trkpt>
      <trkpt lat="48.68059" lon="2.00877">
        <ele>171</ele>
        <time>2025-03-16T09:36:57.000Z</time>
      </trkpt>
      <trkpt lat="48.68026" lon="2.00869">
        <ele>170</ele>
        <time>2025-03-16T09:37:36.000Z</time>
      </trkpt>
      <trkpt lat="48.67991" lon="2.00909">
        <ele>164</ele>
        <time>2025-03-16T09:38:26.000Z</time>
      </trkpt>
      <trkpt lat="48.67993" lon="2.00952">
        <ele>162</ele>
        <time>2025-03-16T09:38:59.000Z</time>
      </trkpt>
      <trkpt lat="48.67985" lon="2.01037">
        <ele>156</ele>
        <time>2025-03-16T09:40:04.000Z</time>
      </trkpt>
      <trkpt lat="48.67986" lon="2.01164">
        <ele>149</ele>
        <time>2025-03-16T09:41:40.000Z</time>
      </trkpt>
      <trkpt lat="48.67976" lon="2.01233">
        <ele>142</ele>
        <time>2025-03-16T09:42:33.000Z</time>
      </trkpt>
      <trkpt lat="48.67962" lon="2.01267">
        <ele>140</ele>
        <time>2025-03-16T09:43:04.000Z</time>
      </trkpt>
      <trkpt lat="48.67912" lon="2.01312">
        <ele>155</ele>
        <time>2025-03-16T09:46:44.000Z</time>
      </trkpt>
      <trkpt lat="48.67864" lon="2.01361">
        <ele>167</ele>
        <time>2025-03-16T09:49:55.000Z</time>
      </trkpt>
      <trkpt lat="48.67867" lon="2.01511">
        <ele>171</ele>
        <time>2025-03-16T09:52:29.000Z</time>
      </trkpt>
      <trkpt lat="48.67897" lon="2.01789">
        <ele>170</ele>
        <time>2025-03-16T09:56:02.000Z</time>
      </trkpt>
      <trkpt lat="48.67863" lon="2.02041">
        <ele>170</ele>
        <time>2025-03-16T09:59:16.000Z</time>
      </trkpt>
      <trkpt lat="48.67866" lon="2.02223">
        <ele>171</ele>
        <time>2025-03-16T10:01:44.000Z</time>
      </trkpt>
      <trkpt lat="48.67854" lon="2.02249">
        <ele>171</ele>
        <time>2025-03-16T10:02:08.000Z</time>
      </trkpt>
      <trkpt lat="48.67852" lon="2.02303">
        <ele>170</ele>
        <time>2025-03-16T10:02:49.000Z</time>
      </trkpt>
      <trkpt lat="48.67864" lon="2.02324">
        <ele>170</ele>
        <time>2025-03-16T10:03:10.000Z</time>
      </trkpt>
      <trkpt lat="48.67863" lon="2.02342">
        <ele>169</ele>
        <time>2025-03-16T10:03:24.000Z</time>
      </trkpt>
      <trkpt lat="48.67858" lon="2.0256">
        <ele>153</ele>
        <time>2025-03-16T10:06:09.000Z</time>
      </trkpt>
      <trkpt lat="48.67896" lon="2.0263">
        <ele>152</ele>
        <time>2025-03-16T10:07:17.000Z</time>
      </trkpt>
      <trkpt lat="48.67925" lon="2.0266">
        <ele>155</ele>
        <time>2025-03-16T10:08:28.000Z</time>
      </trkpt>
      <trkpt lat="48.67984" lon="2.02689">
        <ele>152</ele>
        <time>2025-03-16T10:09:39.000Z</time>
      </trkpt>
      <trkpt lat="48.6799" lon="2.02722">
        <ele>158</ele>
        <time>2025-03-16T10:11:06.000Z</time>
      </trkpt>
      <trkpt lat="48.67973" lon="2.02799">
        <ele>164</ele>
        <time>2025-03-16T10:13:09.000Z</time>
      </trkpt>
      <trkpt lat="48.67978" lon="2.02824">
        <ele>163</ele>
        <time>2025-03-16T10:13:29.000Z</time>
      </trkpt>
      <trkpt lat="48.67964" lon="2.02908">
        <ele>162</ele>
        <time>2025-03-16T10:14:34.000Z</time>
      </trkpt>
      <trkpt lat="48.68" lon="2.02943">
        <ele>162</ele>
        <time>2025-03-16T10:15:22.000Z</time>
      </trkpt>
      <trkpt lat="48.68024" lon="2.02954">
        <ele>163</ele>
        <time>2025-03-16T10:16:02.000Z</time>
      </trkpt>
      <trkpt lat="48.68049" lon="2.02994">
        <ele>166</ele>
        <time>2025-03-16T10:17:14.000Z</time>
      </trkpt>
      <trkpt lat="48.68141" lon="2.0299">
        <ele>164</ele>
        <time>2025-03-16T10:19:00.000Z</time>
      </trkpt>
      <trkpt lat="48.68201" lon="2.02993">
        <ele>167</ele>
        <time>2025-03-16T10:20:39.000Z</time>
      </trkpt>
      <trkpt lat="48.68227" lon="2.03026">
        <ele>169</ele>
        <time>2025-03-16T10:21:38.000Z</time>
      </trkpt>
      <trkpt lat="48.68237" lon="2.03057">
        <ele>170</ele>
        <time>2025-03-16T10:22:15.000Z</time>
      </trkpt>
      <trkpt lat="48.68255" lon="2.0307">
        <ele>170</ele>
        <time>2025-03-16T10:22:38.000Z</time>
      </trkpt>
      <trkpt lat="48.68554" lon="2.03192">
        <ele>170</ele>
        <time>2025-03-16T10:28:32.000Z</time>
      </trkpt>
      <trkpt lat="48.68568" lon="2.03162">
        <ele>170</ele>
        <time>2025-03-16T10:29:00.000Z</time>
      </trkpt>
      <trkpt lat="48.6859" lon="2.03141">
        <ele>170</ele>
        <time>2025-03-16T10:29:30.000Z</time>
      </trkpt>
      <trkpt lat="48.68939" lon="2.03278">
        <ele>162</ele>
        <time>2025-03-16T10:36:23.000Z</time>
      </trkpt>
      <trkpt lat="48.69129" lon="2.03364">
        <ele>158</ele>
        <time>2025-03-16T10:40:09.000Z</time>
      </trkpt>
      <trkpt lat="48.69119" lon="2.03426">
        <ele>158</ele>
        <time>2025-03-16T10:40:57.000Z</time>
      </trkpt>
      <trkpt lat="48.69162" lon="2.03488">
        <ele>156</ele>
        <time>2025-03-16T10:42:05.000Z</time>
      </trkpt>
      <trkpt lat="48.69415" lon="2.03665">
        <ele>156</ele>
        <time>2025-03-16T10:47:24.000Z</time>
      </trkpt>
      <trkpt lat="48.69458" lon="2.03691">
        <ele>159</ele>
        <time>2025-03-16T10:48:48.000Z</time>
      </trkpt>
      <trkpt lat="48.69423" lon="2.03792">
        <ele>159</ele>
        <time>2025-03-16T10:50:14.000Z</time>
      </trkpt>
      <trkpt lat="48.69436" lon="2.03834">
        <ele>160</ele>
        <time>2025-03-16T10:50:59.000Z</time>
      </trkpt>
      <trkpt lat="48.69422" lon="2.03904">
        <ele>159</ele>
        <time>2025-03-16T10:51:55.000Z</time>
      </trkpt>
      <trkpt lat="48.69427" lon="2.03972">
        <ele>160</ele>
        <time>2025-03-16T10:52:57.000Z</time>
      </trkpt>
      <trkpt lat="48.69434" lon="2.04099">
        <ele>162</ele>
        <time>2025-03-16T10:54:54.000Z</time>
      </trkpt>
      <trkpt lat="48.69438" lon="2.04173">
        <ele>163</ele>
        <time>2025-03-16T10:56:01.000Z</time>
      </trkpt>
      <trkpt lat="48.69435" lon="2.04396">
        <ele>164</ele>
        <time>2025-03-16T10:59:00.000Z</time>
      </trkpt>
      <trkpt lat="48.69436" lon="2.04433">
        <ele>165</ele>
        <time>2025-03-16T10:59:39.000Z</time>
      </trkpt>
      <trkpt lat="48.69429" lon="2.04526">
        <ele>165</ele>
        <time>2025-03-16T11:00:49.000Z</time>
      </trkpt>
      <trkpt lat="48.69434" lon="2.04579">
        <ele>165</ele>
        <time>2025-03-16T11:01:30.000Z</time>
      </trkpt>
      <trkpt lat="48.69417" lon="2.04618">
        <ele>165</ele>
        <time>2025-03-16T11:02:05.000Z</time>
      </trkpt>
      <trkpt lat="48.69402" lon="2.04707">
        <ele>165</ele>
        <time>2025-03-16T11:03:15.000Z</time>
      </trkpt>
      <trkpt lat="48.69401" lon="2.04754">
        <ele>165</ele>
        <time>2025-03-16T11:03:50.000Z</time>
      </trkpt>
      <trkpt lat="48.69401" lon="2.0481">
        <ele>165</ele>
        <time>2025-03-16T11:04:32.000Z</time>
      </trkpt>
      <trkpt lat="48.69395" lon="2.04884">
        <ele>165</ele>
        <time>2025-03-16T11:05:29.000Z</time>
      </trkpt>
      <trkpt lat="48.69406" lon="2.04953">
        <ele>165</ele>
        <time>2025-03-16T11:06:23.000Z</time>
      </trkpt>
      <trkpt lat="48.69429" lon="2.05054">
        <ele>165</ele>
        <time>2025-03-16T11:07:43.000Z</time>
      </trkpt>
      <trkpt lat="48.69444" lon="2.051">
        <ele>165</ele>
        <time>2025-03-16T11:08:22.000Z</time>
      </trkpt>
      <trkpt lat="48.69455" lon="2.05137">
        <ele>165</ele>
        <time>2025-03-16T11:08:53.000Z</time>
      </trkpt>
      <trkpt lat="48.69489" lon="2.05237">
        <ele>165</ele>
        <time>2025-03-16T11:10:18.000Z</time>
      </trkpt>
      <trkpt lat="48.69525" lon="2.05318">
        <ele>164</ele>
        <time>2025-03-16T11:11:32.000Z</time>
      </trkpt>
      <trkpt lat="48.69564" lon="2.05369">
        <ele>163</ele>
        <time>2025-03-16T11:12:30.000Z</time>
      </trkpt>
      <trkpt lat="48.69645" lon="2.05369">
        <ele>160</ele>
        <time>2025-03-16T11:14:03.000Z</time>
      </trkpt>
      <trkpt lat="48.69709" lon="2.0535">
        <ele>157</ele>
        <time>2025-03-16T11:15:17.000Z</time>
      </trkpt>
      <trkpt lat="48.69761" lon="2.05391">
        <ele>144</ele>
        <time>2025-03-16T11:16:24.000Z</time>
      </trkpt>
      <trkpt lat="48.6978" lon="2.05417">
        <ele>139</ele>
        <time>2025-03-16T11:16:53.000Z</time>
      </trkpt>
      <trkpt lat="48.69808" lon="2.0546">
        <ele>132</ele>
        <time>2025-03-16T11:17:39.000Z</time>
      </trkpt>
      <trkpt lat="48.69814" lon="2.05487">
        <ele>131</ele>
        <time>2025-03-16T11:18:01.000Z</time>
      </trkpt>
      <trkpt lat="48.69866" lon="2.05576">
        <ele>120</ele>
        <time>2025-03-16T11:19:31.000Z</time>
      </trkpt>
      <trkpt lat="48.69957" lon="2.05581">
        <ele>110</ele>
        <time>2025-03-16T11:21:15.000Z</time>
      </trkpt>
      <trkpt lat="48.70068" lon="2.05617">
        <ele>96</ele>
        <time>2025-03-16T11:23:25.000Z</time>
      </trkpt>
      <trkpt lat="48.70098" lon="2.0564">
        <ele>93</ele>
        <time>2025-03-16T11:24:03.000Z</time>
      </trkpt>
      <trkpt lat="48.70218" lon="2.05567">
        <ele>81</ele>
        <time>2025-03-16T11:26:32.000Z</time>
      </trkpt>
      <trkpt lat="48.70217" lon="2.05551">
        <ele>81</ele>
        <time>2025-03-16T11:26:44.000Z</time>
      </trkpt>
      <trkpt lat="48.70235" lon="2.05547">
        <ele>80</ele>
        <time>2025-03-16T11:27:05.000Z</time>
      </trkpt>
      <trkpt lat="48.70228" lon="2.05575">
        <ele>81</ele>
        <time>2025-03-16T11:27:38.000Z</time>
      </trkpt>
      <trkpt lat="48.70236" lon="2.05623">
        <ele>82</ele>
        <time>2025-03-16T11:28:26.000Z</time>
      </trkpt>
      <trkpt lat="48.70261" lon="2.05746">
        <ele>82</ele>
        <time>2025-03-16T11:30:03.000Z</time>
      </trkpt>
      <trkpt lat="48.70264" lon="2.05778">
        <ele>82</ele>
        <time>2025-03-16T11:30:27.000Z</time>
      </trkpt>
      <trkpt lat="48.70252" lon="2.06181">
        <ele>80</ele>
        <time>2025-03-16T11:35:32.000Z</time>
      </trkpt>
      <trkpt lat="48.70228" lon="2.063">
        <ele>81</ele>
        <time>2025-03-16T11:37:16.000Z</time>
      </trkpt>
      <trkpt lat="48.70222" lon="2.06527">
        <ele>78</ele>
        <time>2025-03-16T11:40:08.000Z</time>
      </trkpt>
      <trkpt lat="48.7027" lon="2.06821">
        <ele>76</ele>
        <time>2025-03-16T11:43:56.000Z</time>
      </trkpt>
      <trkpt lat="48.70318" lon="2.06934">
        <ele>76</ele>
        <time>2025-03-16T11:45:38.000Z</time>
      </trkpt>
      <trkpt lat="48.70317" lon="2.06952">
        <ele>77</ele>
        <time>2025-03-16T11:46:02.000Z</time>
      </trkpt>
      <trkpt lat="48.70305" lon="2.06955">
        <ele>78</ele>
        <time>2025-03-16T11:46:26.000Z</time>
      </trkpt>
      <trkpt lat="48.70316" lon="2.07088">
        <ele>79</ele>
        <time>2025-03-16T11:48:18.000Z</time>
      </trkpt>
    </trkseg>
  </trk>
</gpx>